GFSMA_sfc_thetae_051.txt.gz
Theta_e
324 321 321 319 319 321 322 322 322 321 321 322 322 322 323 324 325 325 325 326 327 326 325 323 322 321 318 317 315 315 314 314 313 313 312 311 310 309 309 308 308 307 307
322 319 318 318 318 318 319 320 320 320 320 320 320 322 322 323 324 325 325 326 325 326 326 325 324 322 320 317 315 314 313 312 312 311 310 309 309 308 307 306 306 305 305
322 321 318 317 319 318 317 316 316 318 318 318 318 319 319 320 320 321 324 325 325 323 325 326 324 323 321 318 315 315 312 310 311 310 309 308 307 306 304 304 303 303 304
322 320 317 318 319 319 317 315 313 314 315 315 314 314 314 314 315 317 321 324 324 323 324 324 325 324 322 320 316 315 312 310 310 309 308 308 306 304 302 301 301 302 302
321 320 318 318 319 319 317 315 313 313 311 312 312 313 313 313 314 313 316 320 324 324 324 323 323 322 323 320 317 316 314 311 310 309 308 307 306 303 301 300 300 300 301
322 321 319 319 318 319 318 317 315 314 312 311 307 308 311 313 313 314 315 316 320 324 324 324 324 322 320 321 318 316 315 313 311 311 309 309 307 304 302 301 300 300 301
323 323 321 320 319 317 320 319 317 315 312 311 308 308 308 309 310 311 313 314 315 318 321 322 322 321 318 320 319 317 315 314 313 312 310 309 308 305 303 302 302 301 301
323 324 324 322 321 319 320 320 317 315 314 312 310 310 306 307 307 309 309 311 313 314 316 318 320 317 318 317 317 317 315 314 314 314 312 310 309 307 305 304 303 303 302
323 324 326 325 323 324 320 321 319 317 314 312 312 312 306 307 309 310 309 307 307 312 314 315 316 316 316 313 314 314 314 314 314 314 313 312 311 310 308 307 306 305 304
323 325 326 325 324 324 323 323 320 320 319 314 311 310 313 313 308 305 307 309 309 308 311 311 313 314 314 314 311 309 308 309 312 313 312 312 312 311 310 309 308 307 306
320 322 323 325 325 325 325 324 321 319 318 319 314 313 310 308 307 304 307 304 304 308 309 309 308 312 311 310 310 308 305 305 306 311 311 312 311 312 312 311 310 309 308
318 320 320 323 325 325 325 324 323 321 319 317 316 316 312 307 303 302 301 306 303 309 305 305 307 307 309 307 303 304 303 303 304 306 309 310 310 310 311 311 311 311 310
316 318 320 321 322 324 325 325 323 322 321 319 318 316 315 313 310 307 306 305 305 304 303 305 305 305 304 304 302 302 303 301 301 303 306 307 309 310 311 310 310 310 310
318 319 320 321 322 322 323 324 323 323 322 321 319 317 312 311 311 311 308 304 298 303 298 304 300 298 300 302 302 300 303 300 300 301 302 303 305 306 307 308 309 310 309
318 319 320 320 321 322 323 323 322 322 321 320 318 316 312 312 313 313 310 308 307 298 297 298 297 300 299 301 303 303 300 299 299 299 299 301 302 303 304 305 306 307 308
318 319 320 321 321 322 322 322 322 322 320 317 317 313 312 313 314 310 307 307 306 305 300 301 297 298 301 300 301 300 301 298 298 297 297 298 299 300 301 302 303 303 305
316 317 319 320 320 321 322 322 322 321 315 316 316 313 312 312 309 308 307 303 301 301 299 297 299 298 299 301 299 300 300 301 302 296 296 296 297 297 298 298 299 300 300
315 316 317 319 320 320 322 320 319 315 314 313 312 310 310 308 307 305 303 300 299 300 297 295 298 295 294 296 297 300 299 299 300 298 295 296 296 296 296 296 296 297 297
318 319 318 318 319 318 320 319 318 313 311 313 313 310 307 305 304 301 300 300 298 298 296 293 292 293 294 295 298 298 297 297 296 294 294 294 295 295 295 295 295 295 295
318 319 320 320 320 319 319 316 315 316 314 312 311 307 305 303 302 299 298 297 296 293 293 292 292 292 293 296 294 292 291 291 289 288 289 289 291 292 293 293 293 293 293
319 320 320 321 321 320 316 314 312 310 309 306 305 303 303 301 297 298 297 295 294 292 292 290 288 288 290 288 289 289 285 286 287 288 288 289 289 289 289 289 289 289 290
319 320 320 320 319 317 304 301 306 309 307 302 299 297 297 295 293 291 291 291 293 290 286 286 287 288 289 286 286 285 284 283 282 289 286 285 288 287 288 289 288 288 288
320 320 320 318 315 313 298 298 296 303 302 300 296 294 293 291 290 289 286 286 285 284 286 287 286 285 283 285 284 283 283 283 283 285 284 283 287 285 287 286 287 287 288
317 315 311 308 305 302 295 294 294 298 296 296 295 293 290 288 287 285 283 282 281 282 282 283 285 285 286 285 284 283 283 283 284 285 285 280 284 282 285 286 286 285 286
301 300 300 300 298 295 292 291 292 291 288 288 288 288 287 285 286 286 283 281 281 282 283 282 281 280 280 280 280 282 281 280 279 279 282 280 281 280 282 283 286 286 286
294 292 291 292 291 291 290 290 290 287 285 283 284 284 284 283 283 283 282 282 280 281 281 282 282 280 279 280 278 280 280 277 277 277 282 278 278 279 277 282 283 284 286

GFSMA_sfc_thetae_054.txt.gz
Theta_e
329 328 329 331 330 331 330 327 327 326 325 324 324 325 325 326 327 326 326 326 326 326 325 324 322 321 319 318 317 316 315 315 315 313 312 311 311 310 309 308 308 308 307
327 323 324 324 326 329 329 326 325 324 322 323 323 324 324 325 326 327 326 326 325 326 326 324 324 322 320 318 316 315 314 314 314 312 311 310 309 308 307 306 306 306 305
325 325 321 322 323 325 325 324 324 323 321 321 322 323 323 324 324 325 326 326 326 324 325 326 324 323 321 319 317 316 314 313 313 312 311 310 308 306 305 304 304 303 303
324 324 321 321 322 323 322 322 322 321 320 320 320 321 321 321 322 323 324 325 325 325 324 325 326 325 322 320 318 317 314 312 312 311 311 310 308 305 303 302 302 302 302
322 322 320 322 324 322 322 320 319 320 318 318 318 318 318 318 318 318 321 323 325 324 325 323 324 324 324 322 320 318 316 313 313 312 311 310 308 305 303 302 301 301 301
323 323 321 323 325 323 322 321 319 319 318 317 313 314 317 317 318 317 318 319 322 324 324 325 326 323 321 323 321 319 318 316 314 313 312 311 309 307 305 303 302 302 302
324 324 322 323 324 324 324 324 321 318 316 318 313 313 314 317 317 317 318 318 319 321 324 323 323 323 322 322 323 320 319 318 316 315 313 312 311 309 307 305 304 304 303
324 324 324 323 323 324 325 325 323 319 319 318 314 316 312 314 315 316 317 316 317 317 318 321 322 322 322 322 321 321 319 318 317 317 315 313 312 311 309 307 306 305 305
325 325 325 325 324 324 323 325 325 323 320 320 321 318 314 311 316 318 315 316 317 316 317 319 320 320 321 321 319 318 316 316 318 316 316 315 314 312 311 310 308 307 307
326 325 325 326 327 325 324 325 325 325 324 320 320 319 322 321 315 313 317 316 313 313 315 317 319 319 320 320 318 314 311 311 313 316 316 315 315 314 313 312 311 310 309
326 325 326 328 328 329 328 328 327 327 326 326 322 321 320 320 320 316 314 316 313 310 311 315 318 317 318 319 319 315 308 307 308 312 314 315 313 313 314 314 314 313 312
324 327 326 329 330 329 329 330 330 329 327 326 327 324 322 319 317 316 314 316 313 309 309 312 314 315 315 317 315 309 306 304 305 308 310 311 312 312 312 312 312 313 314
317 319 324 325 325 326 328 329 329 329 328 326 326 325 324 323 322 320 316 310 312 311 309 310 313 311 313 313 312 306 306 302 302 304 305 306 308 308 309 310 310 311 311
321 321 323 324 324 324 325 326 325 326 327 327 327 326 325 325 323 318 310 307 302 305 306 309 310 309 307 306 306 303 305 301 301 301 302 303 304 304 305 306 307 308 308
323 325 324 323 323 323 324 325 325 324 326 328 327 327 326 325 324 319 316 311 307 304 304 305 306 304 303 305 302 303 307 302 300 299 300 300 302 302 303 303 304 304 305
326 325 324 324 324 325 325 324 325 325 325 327 326 326 325 324 319 317 313 313 311 307 303 306 305 302 300 301 300 304 306 302 299 298 297 298 299 299 300 301 301 301 302
325 324 325 324 324 325 325 325 325 325 325 325 326 323 322 321 318 314 313 310 308 307 304 300 300 301 299 301 299 301 304 305 305 298 297 296 297 297 298 298 298 298 298
325 325 325 324 323 324 325 324 323 323 323 323 323 321 317 313 312 311 310 308 307 306 303 299 299 297 299 298 299 299 300 303 305 300 297 296 295 295 295 295 296 296 296
323 323 322 322 320 322 321 322 320 323 323 322 323 318 314 315 312 311 307 304 303 301 302 297 296 296 299 296 297 299 301 304 303 298 294 293 294 294 295 295 294 294 294
321 322 322 322 322 321 321 321 321 322 322 322 322 319 319 316 312 306 303 301 300 297 296 295 296 293 294 295 296 295 296 300 297 295 293 290 290 291 292 292 292 293 292
322 321 322 322 322 322 322 322 322 322 321 319 317 317 318 311 302 303 301 299 297 295 293 293 292 293 292 292 291 295 293 294 293 293 292 293 292 292 292 292 291 291 291
321 322 321 321 322 322 307 303 312 320 318 315 308 306 305 300 297 294 295 295 296 295 294 293 293 289 289 291 292 291 291 288 286 293 291 290 291 290 291 292 291 289 289
322 321 321 321 321 323 299 300 300 318 312 309 303 299 297 295 294 291 289 287 286 286 290 292 290 289 289 291 290 289 288 288 287 289 289 286 290 289 291 289 289 288 287
322 322 321 321 320 320 299 299 296 305 301 300 298 296 292 291 290 288 287 285 285 284 284 284 286 287 287 288 288 287 286 286 287 288 289 283 287 286 288 289 288 288 287
320 314 312 310 308 301 295 293 296 295 292 290 291 291 289 287 287 287 284 282 282 282 283 283 282 281 281 280 281 284 283 283 283 284 287 284 285 285 285 285 288 287 286
296 294 292 293 292 292 291 292 292 289 286 284 284 285 286 285 285 285 284 283 281 281 281 281 281 280 281 282 279 282 283 280 281 281 286 282 283 282 280 285 285 286 287

GFSMA_sfc_thetae_057.txt.gz
Theta_e
330 333 332 331 329 330 327 325 326 325 324 325 326 327 326 327 326 325 324 326 326 326 324 324 323 321 320 319 318 316 316 316 315 314 313 312 311 311 309 308 308 308 308
329 331 331 331 330 330 328 326 326 324 323 324 325 326 326 326 327 327 325 324 325 326 326 324 323 322 320 319 318 316 316 316 315 314 313 312 310 309 307 306 306 306 306
330 333 331 330 330 331 329 327 326 324 321 323 323 324 325 326 326 327 325 325 324 324 326 326 325 322 322 320 318 317 315 315 314 313 313 311 310 308 306 305 305 304 304
329 330 326 326 326 328 326 324 322 321 321 321 322 322 323 324 325 326 326 326 325 324 323 325 326 325 322 321 319 318 316 314 314 314 313 312 310 308 306 305 304 304 303
325 326 322 325 326 325 324 322 322 322 319 319 320 321 322 321 322 322 324 325 326 325 326 323 324 324 324 323 321 320 318 315 315 314 313 312 311 309 306 305 304 303 303
323 325 324 328 324 322 321 321 323 322 321 319 317 317 319 319 319 319 320 322 323 325 326 327 324 323 322 324 324 321 321 318 316 316 314 313 312 310 308 306 305 304 304
323 324 322 326 325 323 323 325 321 320 318 320 315 315 316 318 319 318 319 319 320 322 324 323 326 324 323 323 324 323 322 321 319 317 316 314 313 312 309 307 306 305 305
323 323 324 322 324 324 327 326 325 319 317 318 313 313 310 313 316 318 319 319 323 320 320 324 324 325 324 323 323 324 322 321 321 319 317 316 314 313 312 310 308 307 306
323 323 325 325 325 327 327 328 326 324 318 320 321 317 312 310 315 319 320 320 322 320 319 320 321 322 324 323 322 321 318 319 321 320 319 317 316 315 314 313 311 310 309
325 322 325 328 329 326 328 329 327 327 326 320 321 320 325 322 315 310 318 319 320 319 321 319 316 321 322 322 321 317 314 313 316 320 321 321 319 317 316 315 314 313 312
323 324 327 329 329 328 329 329 329 329 327 325 323 322 322 322 323 317 314 316 318 319 318 315 316 315 322 323 322 319 310 310 311 316 318 318 318 319 319 317 316 315 315
326 325 326 328 329 330 330 329 330 330 329 328 327 325 322 319 318 318 316 317 318 317 318 317 316 314 315 315 317 313 309 307 308 311 313 315 315 315 315 314 314 314 314
321 325 327 326 328 329 330 326 328 330 330 328 328 327 326 323 323 322 320 317 317 319 314 313 314 312 314 314 313 309 307 304 304 306 308 309 309 311 311 311 312 312 312
321 324 328 329 329 330 330 329 329 328 326 327 329 327 327 324 325 324 321 319 314 313 314 315 314 313 312 311 311 305 308 302 302 302 303 304 305 306 307 307 308 308 309
323 325 327 328 329 329 329 329 328 328 328 329 329 329 326 325 326 326 325 323 318 309 307 313 312 311 310 311 307 304 303 303 301 300 301 302 303 304 304 304 304 305 305
325 325 325 326 326 327 327 327 326 327 326 326 326 326 326 327 326 327 324 322 318 314 309 316 314 307 306 305 303 304 304 303 300 299 299 299 299 300 301 301 302 302 302
326 325 325 325 324 325 326 325 325 325 324 325 326 325 325 326 325 325 321 318 315 312 307 309 304 304 300 300 300 302 304 304 303 300 298 298 297 297 298 298 299 299 298
329 327 325 325 325 324 325 325 324 323 323 323 323 324 323 323 324 322 321 316 314 312 309 305 301 298 298 299 301 300 301 303 303 303 300 297 297 296 295 295 295 295 296
329 327 327 325 324 325 324 325 324 324 324 324 323 323 323 324 320 320 315 312 312 309 307 301 296 297 298 298 298 298 299 300 302 302 296 295 295 295 294 294 294 294 293
328 328 327 326 326 325 325 324 324 324 324 323 324 321 320 323 319 317 315 312 309 304 301 299 296 293 297 295 297 296 295 299 299 302 299 293 293 294 293 293 292 292 293
327 327 326 326 326 325 324 324 323 322 320 319 321 324 323 320 309 313 314 311 305 300 298 296 294 293 292 292 292 295 293 294 296 298 296 295 295 295 294 293 292 293 293
327 327 325 325 325 324 309 302 313 323 320 317 318 321 321 307 304 298 298 298 302 299 296 294 293 292 292 293 293 292 291 289 289 296 294 292 294 292 293 293 293 290 289
326 325 325 325 324 325 302 300 299 321 323 322 321 320 308 302 300 297 291 288 288 288 292 294 292 290 290 292 291 290 289 288 288 292 292 288 291 289 292 291 290 289 289
325 325 325 325 324 323 300 299 298 318 319 314 312 307 300 294 294 293 290 287 286 285 285 287 287 287 286 287 288 288 288 288 288 288 289 284 289 288 290 290 291 290 289
325 324 324 323 319 315 296 297 298 298 294 292 293 294 292 290 290 290 286 284 283 283 284 284 284 283 282 282 281 284 284 284 284 285 288 287 287 286 288 288 289 289 286
318 303 295 295 292 294 295 295 296 291 287 286 286 287 287 286 286 286 284 283 281 280 280 280 280 280 280 281 280 281 282 281 281 281 286 283 283 283 281 286 287 287 287

GFSMA_sfc_thetae_060.txt.gz
Theta_e
327 329 329 326 323 323 321 318 319 320 320 319 323 322 323 322 321 321 321 326 326 326 325 324 323 322 321 319 318 318 318 316 316 315 314 313 312 311 310 309 309 309 309
326 328 328 325 323 323 322 320 322 320 319 320 321 322 323 323 321 321 321 321 324 325 326 324 323 322 321 320 318 317 317 317 316 315 314 312 311 310 309 308 307 307 306
326 328 327 326 324 324 323 321 322 320 319 320 320 321 322 322 322 320 320 320 321 324 325 325 324 323 322 321 319 318 317 317 316 314 313 312 311 309 308 307 306 305 305
327 327 327 326 325 325 324 323 319 317 317 317 317 318 319 320 321 321 320 320 320 321 323 325 325 325 323 321 321 319 317 316 316 315 314 312 311 309 308 306 305 305 304
326 325 324 324 325 324 322 321 319 317 315 316 317 317 317 317 319 320 321 321 320 320 320 322 323 323 324 324 322 321 319 317 316 316 315 314 312 310 308 307 305 305 305
323 323 322 323 322 321 320 319 318 319 316 315 317 316 315 316 316 316 317 320 321 321 321 321 320 320 322 324 324 322 322 320 318 317 316 315 314 312 309 308 307 306 305
321 321 320 321 321 318 317 319 319 317 316 316 313 312 312 313 314 313 315 315 317 319 321 323 320 320 320 323 324 324 323 323 321 318 318 316 315 314 312 310 308 307 307
320 321 320 320 320 320 320 319 317 315 316 316 310 308 304 307 311 314 313 313 313 316 318 321 321 321 320 319 319 324 325 324 323 321 319 318 316 315 314 313 311 310 309
320 320 321 320 320 321 320 319 319 317 312 313 313 309 304 302 307 310 311 312 312 314 314 316 318 321 320 319 320 321 320 320 323 324 323 321 319 317 316 315 314 312 311
320 320 321 321 320 320 322 322 323 320 319 312 312 315 314 315 311 307 310 312 314 313 313 313 314 317 318 318 319 317 315 314 318 322 324 324 322 320 318 317 316 315 314
324 321 321 322 320 320 320 323 322 321 320 318 315 314 313 314 315 311 307 309 311 312 313 314 313 312 314 317 318 317 313 312 313 318 321 322 323 322 321 319 318 317 317
323 323 321 321 323 323 321 322 323 322 321 320 319 318 316 313 312 311 309 309 309 311 313 313 312 312 313 313 315 313 309 309 311 314 317 319 320 320 320 320 319 317 317
318 320 321 321 323 323 324 324 322 322 323 321 320 319 319 317 317 316 312 310 309 312 311 311 311 311 312 311 311 311 310 305 307 310 313 315 316 316 316 316 315 315 315
318 321 321 321 322 323 324 324 323 323 322 321 321 320 320 319 319 318 315 311 307 309 309 308 311 312 311 312 312 309 310 304 304 305 306 308 308 309 309 310 310 311 311
318 321 323 322 322 322 323 324 323 321 321 321 321 321 320 320 321 319 318 315 311 306 308 309 309 312 313 313 310 309 307 305 303 301 301 303 304 305 306 307 306 306 306
318 319 321 323 322 322 323 324 323 322 321 321 321 320 320 320 321 319 318 317 315 313 309 310 310 310 310 309 308 307 306 305 302 300 300 300 301 303 303 303 304 303 303
319 319 319 320 321 322 323 322 321 321 320 320 319 319 320 321 319 319 318 318 317 315 311 313 307 305 301 303 304 304 304 303 302 300 299 299 299 299 299 299 300 300 300
322 320 319 320 320 320 321 320 320 320 319 318 318 318 318 319 318 319 319 318 316 314 313 309 307 299 301 301 303 300 302 304 302 301 299 299 298 297 296 296 296 296 296
323 322 321 319 319 320 319 320 320 319 318 318 318 317 317 317 317 317 318 318 317 315 313 310 307 297 298 298 299 299 299 300 302 303 301 298 297 296 296 295 294 294 294
322 323 323 321 320 320 320 320 319 319 318 318 319 318 319 318 317 317 317 317 315 312 310 308 304 294 296 296 297 296 295 297 298 301 300 298 296 296 295 293 293 293 293
325 324 323 322 322 321 320 319 319 318 318 318 318 319 319 316 309 312 316 316 313 310 308 304 300 292 293 292 293 294 293 294 296 297 295 294 293 291 290 293 293 293 293
324 325 324 323 322 322 310 303 312 319 318 317 316 317 317 306 306 301 302 304 310 310 305 301 300 295 295 292 293 292 291 288 287 294 291 289 291 289 289 289 292 292 293
324 323 322 322 321 322 304 302 300 317 318 317 316 315 314 309 304 301 290 289 288 288 291 299 294 290 289 291 291 289 287 286 285 288 287 284 287 284 288 289 291 289 289
322 322 321 321 321 320 303 301 299 312 316 315 313 313 316 302 299 294 289 287 286 286 287 289 287 285 285 286 287 286 285 285 284 286 286 280 284 282 286 286 290 291 291
321 321 321 320 319 318 294 296 297 305 296 290 291 292 292 291 291 292 289 285 283 283 285 285 285 285 284 283 283 284 282 282 282 282 285 283 281 281 281 282 284 289 289
320 313 296 295 292 295 292 293 298 293 287 285 285 286 286 286 287 288 285 283 280 280 280 280 281 281 282 282 283 282 281 280 280 279 281 280 279 279 276 280 280 281 281

GFSMA_sfc_thetae_063.txt.gz
Theta_e
329 327 326 324 322 320 318 316 315 316 314 316 318 320 319 318 318 320 320 325 326 326 325 325 324 323 321 320 319 319 318 317 317 316 315 314 313 312 311 311 311 310 310
328 326 323 321 320 318 315 316 316 315 315 315 318 321 319 319 318 319 319 320 324 326 325 324 324 323 321 320 319 319 318 317 316 315 314 313 312 310 310 309 309 308 308
326 327 322 320 321 319 315 315 317 318 315 318 317 319 320 319 318 319 319 318 320 323 325 325 324 323 322 321 319 318 318 317 316 315 314 313 311 310 309 308 307 306 306
326 327 324 320 322 320 319 317 318 316 315 316 315 316 318 318 318 318 319 319 319 319 322 325 325 325 323 322 321 319 318 318 317 316 315 313 312 310 309 307 307 306 305
325 327 325 323 323 321 321 320 317 316 314 314 314 314 315 317 317 318 317 317 318 318 318 322 323 323 324 324 322 321 320 318 318 317 316 315 313 311 310 308 307 306 306
323 325 325 324 324 322 319 317 317 314 314 315 317 315 313 314 316 316 317 318 317 318 318 318 320 319 322 324 324 323 323 321 319 319 318 317 315 314 312 310 308 308 307
322 319 322 321 320 320 319 317 316 314 312 313 310 309 309 311 312 312 314 317 317 318 318 318 318 318 319 322 324 324 325 324 323 320 319 318 317 316 314 312 310 309 309
320 318 319 319 318 319 318 316 314 313 313 313 309 307 302 305 307 310 310 311 315 318 319 319 318 318 318 319 319 324 325 325 325 323 321 319 318 317 316 315 313 311 311
319 319 319 318 317 318 317 314 313 313 311 312 310 306 301 300 302 305 308 308 309 310 315 319 319 319 318 318 319 320 320 321 325 326 325 323 321 318 317 317 316 314 313
318 318 319 318 317 318 317 315 316 316 312 310 308 312 309 310 305 303 307 308 309 310 310 312 319 319 319 319 318 317 315 315 319 324 325 325 323 322 320 318 317 317 316
317 317 318 318 316 316 317 317 317 317 317 313 309 307 307 310 311 308 304 306 309 310 311 311 313 316 319 319 318 317 313 312 314 319 323 324 325 324 322 322 321 319 318
318 317 318 319 317 316 316 320 319 318 317 317 315 313 312 309 309 308 306 306 306 308 311 312 311 312 312 313 315 314 312 310 312 315 319 321 323 324 324 323 322 320 320
318 319 318 316 317 318 317 318 320 320 318 318 317 317 317 316 315 313 310 309 307 309 308 309 313 313 312 311 311 310 311 308 309 312 315 317 318 320 321 321 321 321 320
316 320 320 318 318 319 320 320 320 320 320 320 318 317 318 318 317 315 312 309 304 306 307 308 309 310 310 309 310 308 311 305 304 305 308 310 313 314 315 316 316 315 315
316 317 320 319 318 319 320 321 320 319 319 319 317 318 317 317 318 318 316 315 311 304 304 307 307 309 311 311 310 308 310 306 305 303 304 306 308 309 309 309 309 310 309
315 315 319 319 319 319 320 321 321 321 319 318 319 318 318 318 318 319 318 317 314 312 307 309 309 309 310 310 309 310 309 307 303 302 302 302 303 304 305 305 306 306 307
314 314 317 319 320 319 319 320 321 321 319 319 319 318 318 318 317 317 317 317 315 314 310 313 310 308 305 307 306 306 307 306 307 301 300 300 300 300 301 301 302 303 303
316 315 315 317 319 319 320 318 318 320 319 318 318 317 317 318 317 317 317 316 316 316 313 311 313 304 304 302 303 302 305 306 305 303 301 300 299 298 298 298 298 298 299
317 317 316 315 315 316 318 319 319 319 319 319 318 317 317 316 316 317 317 316 316 316 316 314 313 303 304 298 299 300 301 302 304 303 299 298 298 298 297 297 297 296 296
318 318 318 317 317 317 317 317 318 318 319 319 318 318 317 317 316 316 315 314 315 315 315 313 313 302 298 298 300 299 296 300 299 302 301 299 298 298 297 296 295 295 294
319 319 319 318 318 317 317 317 317 317 316 316 317 317 317 314 308 311 315 315 314 314 314 313 310 298 296 293 295 298 298 296 297 298 298 298 297 296 296 296 294 294 294
319 320 318 319 319 319 308 302 311 316 316 315 315 315 316 306 306 301 301 303 311 313 313 311 309 306 301 299 296 294 292 289 289 296 293 291 293 290 291 291 292 292 293
321 320 320 320 319 320 304 301 300 315 316 315 315 315 315 315 306 311 292 292 291 291 291 309 310 303 292 291 292 290 288 287 287 289 288 285 287 285 288 289 291 291 290
321 320 320 320 321 321 305 302 299 311 316 317 317 316 316 313 307 299 291 287 285 285 286 288 287 285 285 287 287 287 286 285 285 286 286 282 285 283 286 287 289 291 291
320 320 321 321 320 320 300 300 299 311 312 293 291 293 296 295 292 293 288 284 282 282 285 286 285 284 284 285 286 285 282 282 281 281 284 282 282 281 282 282 285 286 286
319 319 303 295 292 298 291 295 299 301 289 286 286 287 288 289 288 288 285 283 280 280 281 281 282 283 284 284 283 283 282 280 280 279 281 279 279 279 276 279 280 280 280

GFSMA_sfc_thetae_066.txt.gz
Theta_e
329 328 327 326 324 322 319 315 313 313 314 316 319 317 317 317 317 319 320 326 326 327 326 326 325 323 322 322 320 319 319 318 317 317 316 315 314 313 313 312 312 312 312
328 326 325 323 322 320 318 313 313 311 312 315 318 317 317 317 317 318 319 321 324 326 326 325 325 323 322 321 320 319 318 318 317 317 315 314 312 311 311 310 310 310 309
326 324 321 320 320 319 313 312 313 313 313 316 318 317 317 317 317 317 317 318 321 323 324 326 324 323 322 321 320 320 318 318 317 316 315 314 312 311 310 310 309 309 308
327 322 320 319 317 316 313 313 313 313 312 314 315 317 316 316 317 317 317 317 317 319 322 324 325 325 323 322 321 321 320 319 318 317 316 314 313 311 310 309 309 308 308
327 322 319 320 317 316 312 315 314 314 313 313 315 315 316 315 315 317 316 316 316 316 317 322 323 323 324 324 322 322 321 320 320 318 317 316 314 313 311 310 309 308 308
326 325 321 321 318 316 314 315 314 314 315 315 316 315 314 315 315 315 315 317 316 316 316 317 319 319 321 324 325 323 323 322 321 320 319 318 316 315 313 311 310 309 308
324 325 322 322 321 318 318 316 314 314 313 314 311 309 309 312 314 314 315 314 315 316 315 316 316 317 319 322 324 324 325 325 324 322 321 320 318 317 315 313 312 311 310
322 323 324 321 322 320 316 315 314 311 313 314 310 308 304 306 308 311 312 314 313 315 316 316 316 317 317 318 319 324 325 326 326 325 322 322 321 318 317 316 314 313 312
320 320 322 319 320 319 317 314 314 313 311 311 312 309 302 302 303 305 308 311 313 314 316 316 317 317 317 317 318 319 320 321 325 328 327 324 323 322 319 318 317 315 314
319 319 320 318 318 319 318 316 314 312 312 312 309 311 309 307 302 300 305 306 309 312 315 317 317 317 317 317 317 316 314 315 318 324 327 327 325 323 322 321 319 318 317
318 317 318 318 317 318 318 317 315 312 312 312 309 308 307 308 308 305 302 304 306 308 310 313 316 317 318 318 317 316 312 311 313 319 323 326 327 325 323 322 322 321 319
316 317 317 317 317 317 318 317 316 313 313 313 313 310 308 306 307 307 304 304 305 306 310 310 310 315 318 318 318 315 312 310 311 314 318 321 324 325 326 324 323 322 321
315 315 317 317 317 317 317 318 316 314 313 315 314 312 313 311 312 310 309 306 305 306 307 307 310 311 312 313 316 313 313 308 308 311 314 316 318 321 322 323 324 323 322
316 317 317 317 318 317 316 317 318 318 316 316 315 316 316 316 315 314 312 309 303 304 305 308 308 311 312 312 311 309 312 306 306 306 309 311 313 315 316 318 320 321 321
317 318 318 316 317 317 318 317 315 316 318 318 317 317 317 317 317 317 315 311 309 302 303 307 307 310 312 313 311 311 310 308 305 304 305 307 310 311 312 313 315 316 317
313 315 319 318 317 317 318 317 317 317 317 318 318 318 318 318 316 316 315 313 312 311 307 308 308 311 311 310 310 310 309 307 304 303 303 304 306 308 309 310 311 311 311
312 312 315 318 318 317 316 316 317 318 317 317 318 317 317 318 316 316 316 316 315 314 310 312 311 310 309 310 310 309 310 309 309 303 302 302 302 303 304 304 305 305 305
313 313 312 316 317 318 317 315 314 316 317 317 317 317 316 317 315 317 315 314 314 314 312 309 312 307 305 308 312 309 309 309 308 305 301 301 301 300 300 299 300 300 301
314 313 313 312 314 317 317 317 316 316 316 317 318 317 316 316 315 315 315 314 314 314 314 312 311 313 308 299 301 301 304 306 307 305 300 299 299 299 299 298 298 298 298
317 316 315 314 313 313 315 317 317 316 316 316 317 318 318 316 315 315 314 314 314 313 313 312 313 313 309 302 300 302 302 302 304 305 303 300 299 299 298 297 297 297 297
318 318 317 317 315 314 313 313 314 314 315 316 316 317 318 316 310 312 315 315 315 313 313 312 312 312 306 294 298 305 303 305 300 302 300 299 298 298 297 297 297 297 296
317 318 317 317 317 316 307 302 308 314 314 314 314 316 317 307 306 301 301 303 310 313 311 312 312 311 312 306 307 305 301 291 292 296 295 293 295 293 294 295 295 294 294
317 317 317 318 317 317 304 301 299 313 315 314 314 314 314 314 306 313 300 296 290 289 291 305 312 312 310 309 307 292 290 289 287 287 288 285 287 286 289 290 291 292 292
317 316 316 317 317 317 304 300 298 311 313 314 315 314 315 314 313 311 299 288 286 286 286 289 289 286 286 288 291 290 287 285 284 284 286 283 285 284 285 286 289 289 288
316 318 318 318 317 317 305 300 300 313 313 313 314 306 306 312 306 299 292 285 283 283 286 286 286 286 287 287 288 288 285 285 281 281 282 283 281 281 282 283 286 285 284
301 312 319 318 312 317 300 297 301 314 313 309 290 289 290 295 292 293 292 285 281 281 282 282 282 283 283 283 284 284 284 282 280 279 279 280 279 279 277 279 280 280 280

GFSMA_sfc_thetae_069.txt.gz
Theta_e
329 330 328 326 322 321 320 316 313 315 317 317 317 317 316 316 316 318 318 326 327 327 327 327 326 325 324 323 322 321 320 319 319 317 317 316 315 315 315 315 314 314 314
330 328 326 325 322 320 317 316 313 313 316 317 316 316 316 316 316 316 318 321 324 326 327 325 325 325 324 323 321 320 320 319 318 317 316 315 313 313 313 313 312 312 312
329 327 325 322 321 318 314 312 311 310 313 317 316 316 316 315 316 316 316 317 320 323 325 326 324 324 324 323 321 320 319 319 318 317 316 315 313 312 312 311 311 311 311
328 325 323 321 321 317 315 313 311 310 312 316 315 315 315 315 315 315 315 316 316 318 322 325 325 324 323 323 322 321 320 319 318 318 316 315 314 313 312 311 311 310 310
325 323 320 319 318 317 315 313 312 312 312 314 315 315 313 314 314 317 315 315 315 315 315 322 323 323 324 323 322 323 323 321 319 319 318 316 315 314 312 311 311 310 309
324 320 318 318 317 313 313 313 314 312 312 314 316 314 314 313 314 313 314 315 314 315 315 316 318 318 322 324 323 323 324 323 322 321 320 318 317 315 314 312 311 311 310
324 320 319 317 316 310 312 314 311 311 310 313 311 309 310 313 312 313 313 313 314 314 314 314 315 315 317 322 325 324 325 325 324 323 322 321 319 317 316 314 313 312 312
326 322 319 318 316 314 314 315 312 310 310 312 310 309 305 308 311 311 311 312 313 315 315 315 314 315 315 316 318 325 325 326 326 325 324 324 323 320 318 317 316 314 313
323 325 321 320 319 317 316 315 312 312 310 310 312 309 303 304 305 307 310 312 312 313 315 315 315 315 316 316 318 319 319 321 326 328 328 326 324 324 322 320 318 317 315
322 321 323 320 320 320 317 315 314 314 313 311 308 310 310 308 304 302 306 310 312 312 313 313 314 315 316 316 317 315 314 314 318 324 327 328 328 325 324 323 322 319 318
319 318 321 319 319 320 319 317 313 311 314 313 309 307 308 309 308 305 302 303 305 310 314 314 315 315 316 316 315 315 312 311 313 318 322 325 327 328 326 325 323 323 322
318 317 319 318 319 318 318 317 315 313 313 315 312 310 309 308 308 307 303 303 303 306 309 311 313 315 316 316 317 314 311 310 311 314 318 321 323 325 327 326 325 324 323
316 315 317 318 317 317 318 318 316 316 313 312 313 311 312 311 312 312 308 306 305 306 306 308 310 312 314 315 316 313 313 308 309 311 314 316 318 320 323 324 325 326 325
317 316 317 318 318 317 317 318 317 316 315 313 313 313 312 311 311 311 309 306 302 303 304 307 308 310 310 312 313 311 315 308 307 308 309 312 313 315 316 318 321 322 323
317 315 315 316 318 318 317 316 317 316 316 314 314 315 315 314 314 313 312 310 308 304 303 306 307 309 311 312 311 311 312 311 306 305 306 307 310 312 312 314 315 317 319
314 316 316 315 316 317 317 316 315 315 316 316 315 313 313 315 316 316 315 314 313 312 307 306 307 310 310 311 312 311 311 308 305 303 303 304 306 308 309 310 312 313 315
312 312 317 317 315 316 316 316 315 315 314 315 316 315 315 316 316 316 315 315 314 313 310 312 310 309 307 309 310 309 310 309 309 303 302 302 302 303 304 306 307 308 309
312 312 312 316 318 316 316 315 316 317 316 314 314 314 314 316 316 317 316 314 314 315 312 310 313 310 306 310 310 308 309 310 310 308 302 302 302 302 301 302 302 303 304
313 312 313 312 314 316 317 316 315 314 315 315 316 315 315 315 314 315 316 315 315 314 314 312 311 313 311 302 304 302 305 306 308 308 301 300 301 301 301 300 301 301 300
315 314 313 312 312 313 315 316 315 314 314 313 314 315 315 315 315 315 314 315 315 314 313 311 311 311 311 307 301 306 307 304 307 308 305 302 300 300 300 299 298 298 298
316 316 315 314 314 312 312 312 314 315 314 314 314 314 315 314 309 311 315 314 313 312 311 311 311 311 311 305 304 309 306 310 310 307 306 304 302 300 299 298 298 298 297
317 317 315 315 315 315 306 301 305 311 312 313 313 314 315 306 306 301 301 303 310 312 311 311 311 310 311 312 311 308 309 304 301 297 299 294 296 294 295 296 296 295 295
317 317 317 317 316 316 303 301 299 311 312 312 312 312 312 314 307 314 303 298 299 298 302 313 312 312 311 312 313 308 306 308 303 288 290 285 288 286 289 289 290 290 291
303 309 315 317 317 317 304 301 301 311 313 313 313 313 312 312 312 311 311 308 304 303 292 293 302 304 295 292 295 297 295 285 285 284 286 285 285 284 286 286 288 288 288
299 300 303 304 312 316 304 299 300 311 312 313 314 314 313 312 308 302 308 306 290 286 287 288 287 287 287 287 289 289 286 287 282 280 281 283 280 281 282 282 284 285 284
295 296 294 290 288 288 289 289 292 309 311 311 312 310 288 288 290 294 306 306 291 284 283 282 281 281 282 283 283 282 285 282 280 278 279 280 279 280 278 280 280 280 280

GFSMA_sfc_thetae_072.txt.gz
Theta_e
328 326 328 327 327 322 319 316 316 318 316 316 317 317 317 317 317 318 320 326 327 328 327 326 326 326 325 324 323 322 321 321 320 320 320 318 318 317 317 317 316 316 315
329 328 328 326 322 323 318 314 316 316 315 316 316 317 317 317 318 318 319 322 325 326 327 326 326 325 325 324 323 322 321 320 319 318 318 316 316 316 316 315 315 315 314
328 329 327 324 321 319 314 311 311 314 315 315 315 316 317 317 317 317 318 319 322 323 325 327 326 325 325 324 322 322 321 319 319 318 317 316 315 315 314 314 313 313 313
330 328 326 322 319 317 315 312 312 313 314 313 313 314 316 316 316 316 317 318 318 319 323 324 325 326 325 324 323 322 321 319 319 318 317 316 314 314 313 313 312 312 312
329 327 324 321 319 317 315 312 310 313 314 312 313 314 315 314 315 317 316 316 316 317 318 322 323 323 324 324 323 323 322 321 320 319 318 317 316 314 313 313 312 312 311
326 324 321 319 319 317 315 313 311 311 315 314 315 312 313 314 314 314 314 316 316 316 316 318 320 320 321 324 323 324 324 323 322 321 320 319 317 316 314 313 313 312 312
322 320 318 317 316 315 314 313 312 312 311 314 310 309 309 313 313 313 314 314 315 316 316 316 317 317 319 323 325 324 325 326 325 324 322 321 320 318 316 315 314 313 313
321 319 318 316 315 312 313 313 313 310 311 314 310 308 304 308 312 313 313 313 313 315 315 316 316 317 316 318 320 325 325 326 326 325 324 324 323 321 319 318 316 315 315
322 320 320 316 315 312 312 313 311 311 309 310 314 309 303 304 308 310 311 312 313 313 315 316 316 316 316 316 317 320 320 321 326 329 328 326 325 324 323 321 320 318 317
324 321 319 318 315 314 314 314 313 312 312 310 308 310 310 308 306 303 307 311 313 313 313 315 315 315 316 317 317 315 314 314 318 324 327 329 328 326 325 324 323 322 320
323 323 320 320 318 317 316 315 314 312 312 312 310 308 308 308 308 307 304 305 308 312 314 314 314 315 316 316 317 315 311 311 313 318 322 325 327 328 328 326 325 324 323
320 321 322 319 319 319 317 317 315 313 313 313 312 310 309 308 307 307 305 305 305 307 312 314 314 315 316 316 317 314 311 309 310 314 318 321 323 325 327 328 328 326 325
317 317 320 319 320 319 319 317 315 313 312 312 313 312 312 312 312 311 309 307 306 308 307 310 313 315 316 316 316 313 312 308 308 311 314 316 318 321 323 324 326 327 327
318 318 318 318 318 319 319 318 317 316 315 313 312 313 312 313 312 311 310 308 304 304 306 308 309 311 312 314 315 311 316 308 307 308 309 311 313 315 317 319 321 322 324
319 317 317 318 317 318 318 318 318 317 317 316 314 313 313 313 313 312 311 310 309 304 304 307 308 310 311 311 311 313 315 312 307 306 306 308 310 312 313 314 315 317 319
317 315 315 317 317 317 317 317 317 317 316 316 316 314 313 314 314 313 312 311 310 308 305 309 310 312 311 311 311 311 312 309 306 304 304 304 306 308 309 310 311 312 314
315 314 314 315 315 316 317 316 316 315 315 315 316 314 313 314 313 314 314 313 312 312 309 312 311 311 309 310 311 312 312 312 312 304 303 303 303 303 304 306 307 308 309
312 313 316 314 314 315 316 316 315 315 313 313 314 314 313 314 313 313 313 313 314 315 313 310 314 314 308 312 312 312 311 311 312 308 304 302 302 301 301 301 302 303 304
311 311 311 314 315 315 314 315 315 315 313 313 313 312 313 314 313 314 314 314 315 315 314 312 312 315 315 309 308 309 311 311 310 308 303 302 301 301 301 300 301 301 301
312 313 313 313 313 314 315 315 314 314 315 315 316 316 315 314 313 313 313 314 314 314 314 313 312 313 314 315 306 309 309 306 309 310 307 305 303 302 301 300 300 300 300
315 314 313 312 313 313 313 313 314 314 313 313 313 313 314 313 308 311 314 314 314 312 312 311 311 311 311 311 307 311 308 310 312 311 311 309 306 305 303 299 301 299 298
317 316 315 314 313 313 303 300 306 312 313 313 313 313 314 306 305 300 300 302 310 312 310 310 310 309 310 311 312 311 310 309 306 306 308 306 297 295 294 295 297 296 296
303 305 311 315 316 316 302 300 298 310 312 312 312 312 312 313 306 312 304 297 298 297 301 312 310 310 311 312 313 311 311 310 309 299 295 288 288 286 289 290 290 290 291
299 300 301 301 299 296 288 289 290 305 311 313 313 313 312 313 313 311 311 310 307 305 305 305 308 309 292 291 297 302 303 298 285 284 286 284 285 283 285 286 287 287 287
295 295 291 290 287 288 287 288 289 295 307 310 313 314 313 313 307 302 307 307 307 291 287 289 287 285 284 285 287 291 289 287 284 280 280 283 281 281 281 281 283 285 284
291 290 286 285 284 284 286 287 288 293 295 301 305 287 286 287 288 292 296 306 305 288 282 281 281 281 281 281 282 281 284 285 282 278 279 279 279 280 277 280 280 280 280

GFSMA_sfc_thetae_075.txt.gz
Theta_e
332 330 329 332 329 327 332 331 330 329 328 327 326 325 325 325 325 325 326 326 327 327 328 329 328 327 326 326 324 323 322 322 322 322 321 321 320 320 319 318 318 318 318
332 328 329 330 326 325 328 328 328 327 327 326 325 325 325 325 325 326 325 326 325 327 329 328 328 327 326 325 324 323 322 322 321 321 320 319 319 318 318 318 317 317 316
330 329 330 328 325 324 325 326 326 326 325 325 324 324 324 324 323 325 326 326 324 323 326 327 328 326 326 325 323 323 322 321 320 320 319 318 317 317 317 317 316 316 315
331 329 328 326 325 321 322 323 324 323 323 323 322 322 323 324 323 325 325 325 325 324 323 325 326 327 325 324 324 323 322 321 320 319 318 317 316 316 316 315 315 315 314
330 329 327 325 323 323 321 322 323 323 322 322 321 322 322 322 323 322 324 325 326 325 325 323 323 323 325 325 324 324 323 321 321 320 319 318 316 316 315 314 314 314 314
329 328 326 323 323 322 320 320 321 323 322 321 319 319 321 322 322 322 323 323 325 325 326 325 325 323 322 325 325 324 324 324 322 321 320 319 318 317 316 315 314 314 314
328 325 323 321 322 322 322 321 320 321 320 322 318 318 319 321 321 321 322 322 323 324 324 325 325 324 323 322 325 325 326 326 325 323 322 321 320 318 317 316 316 315 314
325 323 321 321 321 323 322 321 320 319 320 321 318 317 312 315 318 319 319 320 321 322 322 323 323 324 324 323 323 324 325 326 326 326 325 325 323 322 320 319 317 317 316
322 321 321 320 320 321 319 319 320 319 316 319 321 318 312 312 314 317 318 319 320 320 321 322 322 322 322 323 322 322 320 321 326 329 328 327 326 325 324 323 321 319 318
322 321 318 318 319 320 320 319 319 318 317 315 318 318 321 318 313 310 314 318 318 318 319 320 321 321 322 323 321 317 314 314 318 324 328 329 329 327 326 325 324 323 322
322 322 319 317 316 318 320 319 319 319 321 320 318 317 317 317 319 316 312 312 315 318 320 321 321 321 322 322 322 320 312 311 313 318 322 325 328 329 329 327 326 325 325
322 321 320 318 317 316 316 316 317 320 320 321 320 320 317 315 313 313 311 312 313 314 319 320 322 322 322 321 320 315 312 309 310 314 317 321 323 325 327 328 329 328 327
319 321 321 320 319 318 317 317 316 316 318 318 321 318 319 319 318 315 315 312 311 314 315 316 319 320 319 322 322 314 313 308 308 311 313 316 318 321 322 324 326 328 328
320 320 321 320 320 320 319 318 317 315 316 318 319 320 319 318 319 318 315 315 311 312 316 314 315 318 321 322 321 312 319 308 306 308 309 311 313 315 316 319 321 323 324
320 320 321 319 320 320 319 319 317 316 315 315 317 318 316 319 318 318 318 318 313 308 309 315 314 319 319 321 319 322 321 315 307 306 306 308 310 312 312 313 315 317 319
321 320 321 319 318 319 319 319 318 318 316 316 316 315 315 317 317 317 313 316 313 313 308 314 317 320 321 318 318 318 320 312 307 304 304 304 306 308 309 310 311 312 314
318 317 319 318 318 319 319 318 318 318 317 317 317 317 316 317 316 315 315 314 312 312 311 314 318 322 320 320 320 319 316 316 317 305 303 303 303 304 304 305 306 308 309
319 317 317 318 319 320 321 320 319 317 316 316 317 316 315 316 315 317 315 314 317 318 315 313 317 319 321 323 323 322 319 316 318 311 305 303 302 302 301 302 302 303 304
320 319 318 316 317 320 321 319 320 320 319 318 318 317 317 316 316 315 316 316 317 316 316 315 316 320 321 324 322 321 321 322 321 313 305 303 303 303 302 301 301 301 301
319 319 319 320 320 319 318 318 319 319 320 320 320 319 319 319 319 320 320 319 317 316 316 315 315 318 320 322 323 319 320 322 318 318 312 308 307 304 302 301 300 300 300
318 318 318 318 319 319 318 318 317 316 317 319 321 320 321 318 309 314 319 319 320 318 316 315 314 317 317 318 318 320 318 319 320 322 320 320 320 319 316 302 302 300 299
305 312 314 314 313 307 290 292 300 316 317 317 318 319 320 309 309 300 300 302 311 316 314 314 313 312 314 318 319 318 317 316 313 320 316 314 307 297 292 292 294 296 296
301 302 300 300 296 290 288 290 290 299 308 313 314 315 316 317 309 317 304 297 298 298 300 312 311 311 311 313 313 312 312 311 311 315 306 308 289 285 288 288 290 290 290
297 293 292 290 291 288 287 288 288 296 301 306 310 312 311 311 312 309 312 311 309 308 304 303 307 309 296 288 291 299 302 302 287 283 286 285 285 282 284 285 286 286 286
292 288 287 286 287 286 286 286 288 295 298 299 290 288 287 289 289 290 295 304 307 288 286 285 285 284 283 283 284 291 290 290 286 280 280 283 281 279 279 279 282 284 284
287 286 285 285 285 285 285 285 288 293 292 288 285 284 285 286 286 287 290 291 287 283 282 280 279 279 279 280 281 280 283 286 285 281 279 280 279 281 277 280 280 281 281

GFSMA_sfc_thetae_078.txt.gz
Theta_e
336 335 335 334 332 333 332 338 337 334 334 333 333 332 330 330 328 327 328 328 329 331 329 328 327 327 327 327 326 324 323 323 323 323 322 322 322 322 321 321 320 320 319
334 332 331 333 331 330 332 336 334 333 332 332 332 331 330 327 327 327 327 327 326 328 330 329 329 328 327 327 325 323 323 323 323 322 322 321 321 320 319 319 319 318 318
334 331 330 331 330 330 330 334 333 332 330 330 330 329 328 326 326 326 326 327 324 324 327 329 329 328 327 326 324 323 322 322 322 322 321 320 320 319 319 318 318 317 317
334 333 329 329 327 326 328 331 330 329 329 328 327 327 327 326 325 326 325 326 326 324 325 326 327 328 327 326 324 324 323 322 322 321 320 319 319 318 318 318 317 317 317
333 332 330 330 326 323 325 329 329 329 327 326 326 326 326 326 325 324 325 326 327 326 326 324 324 324 326 326 324 324 324 323 322 321 320 319 318 318 317 317 316 316 316
330 330 331 327 327 322 322 327 328 329 327 326 323 324 326 326 326 325 324 324 325 326 326 327 326 324 322 325 325 324 325 324 323 322 321 320 319 318 317 317 316 316 315
329 329 327 325 326 321 321 323 328 327 325 327 321 321 323 324 324 324 325 323 324 325 326 326 326 324 324 323 325 325 325 326 325 324 323 322 321 319 318 317 317 316 316
329 327 325 324 322 321 321 326 327 325 324 325 321 320 313 317 321 324 325 324 325 324 324 325 325 325 325 324 323 325 326 327 327 326 325 325 324 323 320 319 319 318 317
327 326 325 323 323 322 321 324 327 326 321 324 325 320 314 312 317 322 323 323 323 322 323 324 324 324 325 325 323 322 320 321 326 329 329 327 326 325 324 323 322 320 320
324 324 324 323 323 324 323 325 326 327 325 321 324 323 324 320 315 314 321 323 323 322 323 323 323 324 323 324 322 318 315 315 318 324 328 329 329 328 326 326 325 324 323
322 321 322 321 322 323 326 327 326 325 325 323 322 323 323 323 322 317 313 317 321 321 323 325 324 325 326 325 325 322 313 311 313 319 323 326 328 329 329 328 327 326 325
322 322 320 320 320 321 325 326 325 325 325 324 323 321 321 319 318 317 315 317 318 320 322 323 325 326 326 326 323 317 313 310 311 314 318 321 323 325 326 328 329 329 327
321 320 320 320 317 319 322 324 324 323 323 323 324 323 323 322 321 319 317 315 315 319 321 324 325 325 324 327 325 316 315 308 309 311 314 316 318 320 322 324 325 327 328
324 325 321 319 319 317 318 318 319 319 321 322 323 324 323 323 323 321 318 316 311 314 316 317 321 323 324 324 322 313 323 308 307 307 309 311 313 315 316 318 320 322 324
323 323 322 321 320 319 317 317 316 316 317 319 319 320 321 322 324 323 322 320 316 310 311 317 317 322 323 324 322 326 325 316 307 306 306 307 310 311 312 313 315 316 318
324 323 322 320 320 320 321 318 316 317 316 316 317 317 318 318 322 322 320 320 320 316 311 315 317 321 323 321 320 325 325 314 309 305 304 304 306 308 309 310 311 312 313
323 321 323 322 321 320 319 318 318 316 315 316 316 315 316 317 316 317 318 317 318 317 312 315 317 320 321 324 324 325 323 324 325 307 304 304 303 303 304 306 306 308 309
322 322 322 322 320 319 319 319 318 318 316 314 315 316 316 317 316 317 316 315 315 315 312 310 315 315 317 321 325 326 324 324 326 315 305 303 303 302 302 302 302 303 304
320 321 321 320 320 320 320 321 322 322 321 320 319 316 316 315 315 316 316 315 316 316 315 312 314 321 323 324 324 325 326 328 326 315 307 304 303 303 302 301 301 301 302
321 320 320 320 320 321 321 322 323 323 322 321 323 322 322 322 322 322 322 321 320 319 320 319 319 319 321 323 323 321 322 326 325 324 317 312 310 306 303 303 302 301 301
320 322 322 322 322 310 295 299 318 320 320 321 322 322 322 319 310 314 323 323 322 321 321 320 317 319 320 320 320 322 321 323 325 327 326 327 326 324 304 297 297 298 298
305 304 301 299 297 293 289 290 293 310 315 317 317 318 320 310 309 301 301 302 310 317 317 316 316 314 315 318 320 319 318 316 314 324 320 318 296 288 289 290 291 293 294
297 295 295 294 289 288 287 288 288 295 302 307 309 307 310 313 305 310 304 297 298 296 297 309 311 313 313 313 307 312 313 313 312 306 299 305 286 284 286 287 288 288 288
292 290 290 290 288 286 286 287 287 297 301 292 288 288 290 292 290 290 295 301 307 290 288 293 290 285 283 284 286 292 293 294 290 287 289 285 282 280 283 284 286 287 287
291 289 289 288 289 286 286 286 293 301 292 288 286 285 286 286 286 287 293 295 290 283 285 284 283 282 282 282 281 288 287 288 289 286 281 285 281 280 280 281 283 284 284
289 289 288 289 286 288 284 285 290 290 286 284 283 283 283 283 284 284 288 290 282 280 280 279 279 279 279 278 279 278 278 283 284 283 279 281 281 281 277 281 281 283 283

GFSMA_sfc_thetae_081.txt.gz
Theta_e
337 334 334 335 335 337 334 333 334 338 336 334 332 330 330 329 329 330 329 329 330 332 330 330 329 328 328 327 326 326 324 324 324 324 323 323 323 323 322 322 321 320 320
338 335 332 334 336 336 332 331 332 335 335 331 330 329 329 328 328 327 327 329 327 329 330 329 329 328 328 328 326 324 323 323 323 323 322 322 322 321 321 320 320 320 319
339 337 336 334 334 332 330 330 330 335 332 329 329 329 328 326 325 326 326 327 326 325 327 330 330 328 328 327 325 324 323 323 323 322 322 322 321 320 320 319 319 319 318
338 333 331 331 332 330 329 329 328 332 329 328 325 327 326 325 325 326 325 325 325 324 325 327 329 329 329 327 325 323 323 323 323 322 322 321 320 320 319 319 319 318 318
335 333 332 329 330 329 328 328 327 332 327 325 324 326 326 324 324 323 325 326 326 325 325 325 325 326 327 328 325 325 324 323 323 322 322 320 320 319 319 319 318 318 318
332 333 330 328 328 327 326 326 326 330 327 326 322 323 327 325 324 323 324 325 325 326 325 325 325 323 324 326 327 325 325 325 323 323 322 321 320 319 319 318 318 318 318
334 333 329 326 326 326 325 326 325 326 326 326 322 320 323 325 326 323 323 323 324 324 326 328 326 324 323 324 326 325 325 326 325 324 323 322 321 321 319 319 318 318 317
332 328 328 325 326 324 322 322 324 323 325 326 319 319 313 317 322 323 323 323 324 324 323 325 325 324 325 324 323 326 326 326 327 326 325 325 325 324 322 320 319 319 318
332 331 327 325 324 323 321 322 323 323 321 325 325 319 312 311 316 322 323 323 326 323 324 324 324 324 326 325 323 323 320 322 327 329 328 327 326 326 325 324 323 322 321
331 330 326 324 323 323 321 322 325 324 324 321 325 324 323 320 314 314 321 322 323 322 325 323 323 324 325 325 323 319 315 315 318 325 328 329 329 327 326 326 325 325 324
326 325 325 323 323 322 321 322 323 325 325 323 323 324 323 322 320 317 313 317 322 322 323 325 324 324 325 325 326 322 312 312 313 319 323 326 328 329 329 328 327 326 326
323 321 323 323 324 323 322 322 324 326 326 326 325 324 322 319 318 317 316 317 318 321 323 325 324 325 326 326 324 317 313 309 310 315 319 321 324 326 327 329 330 329 328
320 320 320 320 321 323 324 324 324 325 326 325 325 322 323 323 322 319 319 316 314 320 322 325 326 327 326 329 328 317 314 309 309 311 314 317 319 321 323 324 326 327 328
323 321 320 320 319 321 322 324 325 326 326 326 325 325 324 321 321 323 317 316 314 315 317 321 326 327 328 329 325 313 323 308 307 307 309 312 314 315 317 318 320 322 323
326 325 321 319 318 318 319 320 321 322 325 325 324 325 323 321 321 323 322 320 317 310 312 318 318 325 325 325 323 327 326 317 308 306 306 308 310 312 313 314 315 316 318
325 326 324 321 318 317 318 317 317 317 317 318 319 318 319 319 320 319 318 321 320 316 311 316 318 317 322 322 321 327 326 316 309 305 304 304 306 308 309 310 311 312 313
324 323 324 322 320 318 317 316 317 315 314 315 316 317 316 318 317 317 318 318 318 319 314 318 319 322 322 323 322 323 326 326 325 307 305 304 303 303 305 306 307 308 309
323 322 322 322 321 320 319 318 316 316 314 314 314 314 314 315 316 317 316 316 316 316 313 311 314 315 318 321 318 318 319 320 324 315 306 304 304 303 302 302 303 303 304
321 321 322 322 322 322 321 319 318 318 317 315 316 314 315 316 315 316 316 315 315 315 314 312 312 315 317 319 319 319 320 322 323 315 308 304 304 304 303 302 302 302 302
320 320 320 321 321 320 316 317 320 319 319 320 321 321 319 318 317 316 316 317 318 318 318 317 316 318 320 322 323 320 320 323 323 324 317 312 311 306 301 296 298 299 299
310 310 316 305 299 296 292 295 305 316 321 321 324 322 322 318 309 312 319 319 321 319 318 319 318 319 320 320 319 321 320 321 323 325 324 325 317 299 293 292 294 294 295
299 300 295 294 292 291 288 289 292 308 314 312 312 307 310 297 297 294 294 295 298 310 316 315 315 314 317 319 320 318 318 317 314 314 306 312 292 288 287 288 290 291 291
293 292 292 290 287 287 287 289 289 300 298 293 292 292 296 294 290 291 294 294 287 287 289 296 301 300 292 287 288 294 300 299 299 291 295 292 286 284 286 287 287 288 288
290 290 290 289 287 286 287 288 289 294 290 287 286 288 288 287 286 287 292 296 285 284 284 284 282 281 281 282 283 287 289 290 290 287 287 290 284 282 284 284 286 286 287
290 289 289 289 287 285 286 288 293 291 288 286 285 285 286 286 285 287 295 289 283 281 283 283 282 282 282 282 282 285 281 284 287 283 280 281 282 281 281 281 283 284 284
290 290 288 288 287 285 285 287 290 288 285 284 284 284 283 283 284 285 287 284 280 279 279 279 279 280 280 280 281 280 279 280 278 281 279 281 283 281 279 281 283 283 283

GFSMA_sfc_thetae_084.txt.gz
Theta_e
335 336 334 333 333 334 334 332 332 333 333 332 331 330 326 326 328 327 328 330 331 333 331 331 331 329 328 328 327 326 325 324 324 325 324 324 325 323 324 324 322 322 321
335 334 334 333 333 333 333 332 331 331 330 330 330 327 325 324 326 325 326 327 328 330 331 330 329 328 328 328 327 325 325 325 324 323 324 323 324 324 324 321 321 321 320
335 333 332 332 332 334 332 330 329 330 329 330 326 326 325 324 321 324 324 325 325 326 328 330 331 328 327 329 326 325 323 323 323 323 323 323 322 322 321 320 320 320 319
335 333 331 331 333 332 329 328 327 328 328 327 324 323 322 320 320 323 324 324 323 323 324 327 328 329 330 328 324 324 324 324 324 323 323 322 322 321 320 320 320 319 319
334 333 332 332 330 329 327 327 327 327 325 325 322 321 320 318 319 321 322 322 322 322 322 325 326 326 328 328 325 324 324 323 323 323 323 322 321 321 320 320 320 319 318
333 333 330 330 329 328 327 327 326 326 325 323 322 321 321 319 318 318 322 321 320 321 321 323 322 322 324 327 327 325 325 324 324 324 323 322 321 320 320 320 319 319 319
332 331 329 328 328 327 326 326 325 324 323 323 319 319 320 321 319 318 319 321 321 321 321 321 321 320 321 324 327 326 326 326 325 325 324 323 322 321 320 320 319 319 319
332 330 329 327 327 325 325 324 324 322 322 323 316 315 311 315 318 319 317 318 320 320 322 322 321 320 319 320 320 326 327 327 327 326 325 325 325 324 322 321 320 320 319
330 330 329 326 325 325 324 324 323 322 319 321 319 315 310 308 312 317 316 317 318 318 317 321 322 320 320 319 320 321 320 321 327 329 328 327 326 326 325 324 323 322 321
329 329 327 326 325 325 324 323 324 323 321 317 320 320 317 314 309 308 315 317 319 318 318 320 318 319 320 321 320 318 315 315 319 326 328 329 328 327 327 326 325 325 324
329 329 326 325 324 324 323 323 323 322 322 319 318 318 316 317 316 312 308 313 316 318 318 319 319 318 319 320 319 318 313 312 314 320 324 327 329 330 328 327 327 327 326
323 324 325 324 324 323 321 322 323 323 322 321 320 319 317 315 315 313 312 313 313 316 317 318 318 319 319 320 320 316 311 310 311 315 319 322 325 327 328 329 329 328 328
320 321 322 322 322 322 322 321 322 322 322 320 320 320 319 318 318 317 314 313 313 316 317 318 318 319 321 321 320 315 313 307 308 311 314 317 319 321 323 325 327 329 330
321 321 321 321 321 322 322 322 321 322 322 321 320 320 319 320 319 318 314 311 308 310 315 316 320 321 321 321 320 314 319 308 307 307 309 312 314 316 317 319 321 322 324
322 321 320 319 319 320 322 322 320 321 321 321 320 320 319 320 319 318 318 317 313 307 309 312 314 321 321 323 320 320 319 314 307 306 306 307 310 312 313 314 315 317 318
323 322 320 318 318 318 318 319 319 320 320 320 319 318 318 318 318 318 317 316 314 312 309 313 313 315 318 319 317 320 320 314 310 306 305 305 306 308 310 310 311 312 313
323 323 321 319 317 317 317 317 317 317 316 315 316 316 316 317 316 315 315 315 314 312 310 313 315 315 314 317 317 318 319 319 319 307 304 304 303 304 305 306 306 308 309
323 322 322 321 319 317 316 316 315 315 315 314 314 314 314 316 315 315 315 314 313 313 310 309 314 313 313 316 317 317 319 319 318 313 306 306 305 303 303 303 303 303 304
321 320 320 320 320 319 317 316 316 315 314 314 313 313 313 313 312 313 314 313 314 314 314 312 311 312 313 314 314 315 315 316 318 313 307 303 303 303 302 298 297 298 299
319 319 317 307 304 300 301 307 317 317 316 316 315 315 315 314 313 312 312 313 314 313 313 311 311 311 312 314 315 313 314 317 316 320 315 309 299 295 294 294 294 295 295
303 304 299 297 295 293 291 292 300 313 318 317 317 318 308 299 295 296 310 309 312 314 313 313 312 313 313 314 315 316 315 316 316 304 308 298 295 291 290 291 292 293 292
295 293 291 291 290 290 289 290 293 306 301 300 298 298 299 291 293 292 289 288 289 299 304 307 309 309 308 294 296 296 300 303 304 296 298 297 291 287 287 287 289 289 290
291 290 289 289 287 288 289 291 292 293 290 289 289 290 291 289 288 290 290 287 286 286 285 290 293 284 285 283 285 290 294 294 296 288 291 294 287 285 285 286 288 288 288
290 289 288 287 286 287 290 290 289 289 287 285 285 287 286 285 286 289 291 285 283 283 283 283 282 282 282 282 282 286 288 288 288 282 282 286 285 282 283 284 286 286 286
288 287 287 286 285 285 288 290 289 287 285 284 284 284 284 284 286 291 288 283 281 280 283 284 283 283 283 283 283 284 280 284 285 280 280 281 281 280 281 281 283 285 284
287 286 284 285 284 284 286 288 288 286 283 282 283 283 284 283 284 285 283 281 278 278 280 280 281 282 283 283 283 281 281 279 276 279 278 280 279 276 276 274 282 282 280

GFSMA_sfc_thetae_087.txt.gz
Theta_e
331 329 326 328 331 332 333 331 331 332 332 331 329 329 326 326 327 329 329 330 331 333 333 334 333 331 330 328 327 326 326 327 326 326 326 326 324 324 324 324 323 322 322
331 330 329 328 329 332 334 332 331 330 331 331 329 328 325 325 325 327 327 328 328 330 331 331 329 330 330 329 328 325 325 325 324 326 325 324 324 324 324 323 322 321 321
333 330 330 330 330 331 331 330 328 328 328 330 329 327 325 324 324 325 325 325 326 326 328 330 330 330 328 328 327 325 324 324 324 325 324 324 323 323 322 321 321 321 321
334 331 330 329 330 330 329 328 328 326 327 327 326 325 322 324 323 323 324 324 322 323 325 327 328 329 329 328 325 325 324 324 323 324 324 323 323 322 322 321 321 321 320
331 330 328 328 330 329 328 326 324 325 326 326 326 323 318 320 322 323 322 321 320 319 320 325 325 325 328 329 325 325 324 324 324 324 324 323 323 322 321 321 320 320 320
331 328 326 326 328 326 324 324 325 325 325 325 326 322 317 318 319 321 320 321 320 319 321 322 322 322 324 326 326 325 326 326 325 324 324 324 323 322 321 321 320 320 320
329 325 326 328 327 325 326 325 325 324 323 324 319 317 317 315 314 318 319 319 318 319 320 321 321 320 321 324 326 326 326 326 326 325 325 324 323 322 321 321 320 320 320
327 326 327 327 326 326 325 325 324 323 323 323 317 315 310 313 316 314 318 318 316 319 319 321 320 319 319 320 320 326 327 327 327 326 325 325 324 323 321 321 321 321 320
328 327 327 327 326 326 324 324 324 322 320 322 320 314 309 307 312 314 314 317 317 318 319 320 319 318 318 318 320 321 320 322 327 328 327 326 326 325 324 323 322 321 321
328 328 328 327 326 326 325 324 324 323 321 318 318 318 316 314 309 307 313 314 316 317 316 319 318 319 318 318 318 317 315 315 319 326 328 328 327 327 326 326 325 325 324
326 325 325 325 325 325 325 325 324 322 322 320 318 316 313 314 314 310 306 309 313 315 315 317 319 319 319 319 317 316 313 312 313 320 325 328 329 328 328 327 327 326 326
324 325 325 325 325 325 324 324 324 323 321 321 320 318 315 313 312 311 308 309 310 312 314 315 316 316 316 318 319 316 312 310 311 315 319 323 326 328 329 329 328 328 328
318 320 323 323 323 324 323 324 323 322 322 320 320 319 319 316 316 316 313 313 311 311 312 313 315 315 318 316 316 314 312 309 309 312 315 317 319 322 324 326 328 329 329
319 320 320 322 322 323 322 323 323 322 322 320 319 319 319 319 318 316 313 312 308 310 312 314 318 318 318 318 317 311 315 306 306 308 309 312 314 316 317 319 321 322 325
321 320 320 320 321 321 321 321 321 321 321 320 319 319 319 319 318 317 316 314 309 304 308 311 315 320 320 319 316 318 318 313 306 305 305 307 310 312 313 314 316 317 319
321 320 319 319 319 320 321 320 319 320 320 320 319 318 317 317 317 317 314 313 312 309 307 312 313 315 320 323 321 320 321 314 308 305 305 305 306 308 309 310 311 312 314
320 320 319 318 318 318 318 320 319 319 318 318 317 317 316 316 314 315 314 312 312 311 307 310 313 314 313 315 316 317 318 319 319 306 305 304 304 304 305 306 307 308 309
322 320 320 318 317 317 317 317 317 318 317 316 315 315 315 316 314 315 314 313 313 312 310 308 311 310 313 313 314 315 316 318 319 313 307 305 304 303 301 299 299 300 301
320 320 320 319 318 317 317 316 316 316 316 316 315 315 314 314 313 313 313 312 313 313 312 310 309 311 313 312 311 311 313 314 316 311 305 297 297 297 295 296 296 296 297
311 306 305 303 302 302 305 313 316 315 315 315 315 315 314 314 314 313 313 312 312 311 312 311 310 310 309 310 312 311 311 314 314 310 296 295 294 294 294 293 294 294 294
300 300 297 296 295 294 293 298 309 313 315 312 309 300 296 296 293 294 310 308 309 312 311 310 310 311 311 311 308 304 307 307 303 299 305 298 294 292 290 290 291 291 291
293 292 291 291 292 292 291 292 299 298 298 297 297 296 292 292 290 289 289 287 288 294 303 304 306 302 297 291 291 293 296 300 299 289 293 294 290 286 287 288 289 289 289
289 289 289 289 290 291 290 290 290 290 289 289 289 290 289 289 291 288 286 286 285 285 284 290 286 284 284 283 284 289 293 293 293 284 287 288 285 283 286 287 288 288 288
287 287 286 287 288 289 289 288 287 287 286 285 285 286 286 287 290 288 285 283 283 283 283 283 282 282 282 283 282 284 285 286 284 282 281 284 284 281 283 283 286 286 286
285 285 285 285 286 287 289 288 286 285 284 284 284 285 285 285 288 288 284 281 280 281 284 285 285 284 284 284 283 281 279 280 282 279 279 280 278 274 273 274 277 285 285
284 284 283 284 285 285 287 287 286 284 281 281 282 283 285 284 285 284 282 281 279 279 281 282 282 283 283 282 281 276 276 277 272 272 276 279 281 280 279 272 276 277 275

GFSMA_sfc_thetae_090.txt.gz
Theta_e
329 330 328 330 331 331 331 329 329 332 332 331 329 327 326 326 329 331 332 331 333 337 339 338 337 335 332 332 331 330 329 328 328 327 326 326 326 326 325 324 325 323 323
329 328 326 329 330 330 331 330 328 329 331 331 329 327 325 326 327 328 329 329 329 332 335 336 336 334 332 329 329 328 328 327 327 326 326 326 324 325 325 324 323 322 322
329 327 326 326 329 330 330 331 328 328 327 330 328 326 326 325 326 326 326 326 326 326 328 331 332 332 330 329 328 326 326 326 326 326 325 324 324 324 323 323 323 322 322
331 329 328 326 328 331 330 329 328 326 324 325 326 324 325 324 325 325 325 324 323 324 325 327 329 330 330 329 327 326 324 324 325 325 325 324 323 324 323 322 322 321 322
331 330 328 328 328 329 329 327 326 325 323 323 325 325 323 322 323 325 323 322 321 320 320 325 326 325 328 329 326 327 326 325 324 324 323 324 324 323 322 322 321 321 321
329 329 328 327 330 329 327 326 325 323 323 324 327 325 318 321 322 322 322 322 319 319 319 321 322 321 324 327 327 326 326 325 325 324 324 324 323 323 322 321 321 321 321
329 328 325 327 330 327 325 324 323 322 323 325 323 318 316 319 320 320 320 319 318 319 318 320 320 319 321 324 326 325 326 327 326 325 325 323 323 323 322 321 321 321 321
326 326 326 326 327 325 324 324 323 322 321 325 319 315 309 312 314 317 317 317 317 317 318 319 319 318 318 320 319 325 326 327 326 325 325 326 325 323 322 322 322 321 321
325 326 327 327 326 325 323 324 323 322 320 321 322 315 309 307 311 313 313 316 314 315 317 319 319 319 318 318 320 321 320 321 327 327 327 327 326 325 323 322 322 322 321
324 325 327 326 326 326 324 323 324 323 323 318 319 320 316 314 308 306 311 313 316 315 315 317 318 318 318 318 318 317 315 315 319 326 328 328 327 326 325 325 324 324 323
323 325 326 326 325 325 325 324 324 322 323 320 317 316 314 314 313 309 307 309 312 316 316 317 317 317 317 317 317 316 313 312 314 319 324 328 328 328 327 327 327 326 326
323 324 326 326 325 325 324 324 324 323 322 321 319 317 315 313 312 310 308 308 310 311 313 316 316 317 317 317 318 314 311 310 311 315 319 322 326 328 328 328 328 328 328
322 323 324 324 324 325 324 325 324 323 322 320 319 317 317 316 316 315 312 309 309 311 312 314 316 316 317 317 317 313 312 308 309 311 314 317 319 322 324 327 328 329 329
321 321 322 323 323 324 324 324 324 323 322 321 320 319 318 318 317 316 313 311 308 309 311 312 313 314 315 316 315 310 316 307 307 307 309 312 314 316 317 319 322 324 326
319 318 319 320 321 322 322 322 323 321 322 321 320 319 319 319 318 317 316 314 311 306 309 310 313 318 318 318 315 316 315 309 306 305 305 307 310 312 313 314 315 317 319
320 319 319 319 320 320 320 320 321 321 320 320 320 318 317 318 317 316 315 314 312 309 306 310 311 313 317 320 318 320 319 312 306 304 303 304 305 308 309 311 312 312 314
320 319 319 319 318 319 319 319 318 319 319 319 319 318 316 316 316 315 314 313 311 310 307 309 311 313 312 313 317 319 320 320 319 307 304 304 305 305 306 304 305 306 307
320 319 319 318 318 318 318 318 318 318 318 317 317 316 315 316 315 315 314 312 311 311 308 306 309 310 311 313 314 314 315 318 319 312 302 299 299 299 296 296 297 297 298
320 320 319 318 317 317 317 317 318 318 317 318 317 316 315 315 313 313 312 312 312 312 312 310 310 311 310 311 312 311 312 312 313 299 296 295 296 296 295 295 295 296 296
309 307 306 305 306 307 311 316 317 317 317 317 317 317 316 315 314 314 312 312 311 311 312 310 310 309 310 310 310 309 307 309 307 301 295 294 294 293 293 293 293 293 293
299 299 298 297 297 297 296 304 313 315 313 303 301 298 296 295 293 297 311 309 311 310 310 309 309 309 308 308 303 301 304 304 295 294 298 295 291 290 290 291 291 292 291
293 293 292 293 293 293 292 293 300 300 300 297 294 293 293 291 289 289 288 287 288 297 306 307 303 300 292 289 291 292 295 299 298 287 291 287 288 286 287 288 289 290 290
289 289 290 290 289 289 289 290 290 291 290 290 291 291 291 290 289 287 286 286 285 286 286 292 287 285 284 283 284 289 291 292 287 283 286 285 285 283 286 287 288 288 288
287 287 288 289 288 287 287 287 287 287 286 285 286 287 289 290 287 286 285 283 283 283 283 284 283 282 283 283 283 285 286 284 283 282 282 282 283 281 283 283 286 286 286
285 285 286 287 286 286 287 286 286 285 284 284 285 285 287 286 287 287 284 282 281 282 285 285 284 283 283 283 283 281 278 284 281 279 279 281 280 275 270 270 274 284 285
283 284 283 284 286 285 286 286 285 284 282 282 284 284 285 284 285 285 283 282 280 280 281 281 281 279 277 277 280 274 272 273 278 268 274 278 275 280 278 270 271 273 273

GFSMA_sfc_thetae_093.txt.gz
Theta_e
331 332 332 330 329 329 328 326 329 330 329 331 331 329 327 327 329 329 331 332 333 339 340 340 339 338 336 334 333 332 331 329 328 328 327 327 327 326 326 326 326 325 325
330 330 328 329 328 329 329 326 327 328 328 330 329 328 327 327 328 328 328 329 330 333 336 338 338 336 335 333 333 331 329 328 328 326 326 326 326 323 325 325 324 324 323
328 328 327 328 328 329 329 325 324 326 329 330 328 327 326 326 326 326 328 326 327 328 330 335 336 336 333 331 330 330 328 329 327 327 325 325 323 324 324 324 323 322 322
328 327 326 327 328 329 329 328 325 326 327 328 325 325 325 326 325 325 325 325 323 325 326 329 331 333 332 330 329 327 327 327 327 326 325 324 323 323 324 323 322 322 322
328 327 326 326 328 327 327 328 326 326 324 325 324 325 324 323 325 326 324 323 321 321 321 324 325 326 329 330 328 327 327 325 325 327 325 324 323 323 323 322 322 322 321
330 329 328 326 327 326 327 327 325 326 323 324 324 322 321 322 324 324 323 323 320 320 320 321 322 323 325 328 328 327 326 326 326 325 325 323 323 323 323 322 322 321 322
330 329 328 326 326 326 325 326 326 323 321 324 323 318 317 320 322 322 322 321 319 319 318 319 318 317 321 324 326 326 328 328 326 324 324 323 322 322 323 322 322 321 321
328 328 327 326 327 327 326 324 324 321 322 324 320 315 310 313 316 319 320 320 318 318 318 318 318 317 317 320 321 325 326 328 327 325 323 323 323 322 323 323 322 322 321
326 327 325 328 327 326 324 324 323 322 320 323 318 315 309 308 312 314 315 317 316 316 317 318 318 317 317 317 319 321 320 322 326 326 327 326 326 325 324 323 323 322 322
324 325 324 326 327 326 323 323 324 323 321 319 321 320 317 315 310 307 312 314 314 315 315 317 317 317 317 317 318 316 315 315 319 326 327 327 327 326 325 325 323 323 323
324 326 327 326 325 325 324 324 324 323 322 320 320 317 315 315 314 311 307 309 312 314 315 316 317 318 317 317 317 316 313 312 313 320 325 328 328 327 327 327 326 325 325
323 325 325 325 326 324 324 323 323 323 323 322 320 319 315 313 311 310 308 309 310 311 314 315 316 317 317 317 317 315 312 310 311 315 319 323 326 328 328 328 328 327 327
321 322 325 325 324 325 324 324 323 323 323 321 320 318 317 316 316 314 311 308 307 309 311 313 316 316 317 316 316 313 312 308 309 311 314 317 320 322 325 327 328 328 328
322 322 322 324 325 324 324 324 324 323 323 322 320 318 317 317 317 316 313 311 307 308 310 311 313 315 317 316 315 310 314 307 307 308 309 312 314 316 317 319 322 324 326
321 321 323 323 322 323 323 323 323 322 322 322 321 318 317 318 317 317 316 315 311 305 307 310 311 314 316 314 313 313 314 309 306 305 305 307 310 312 313 314 315 317 319
318 319 318 319 319 320 320 321 321 322 322 322 320 318 318 318 317 317 316 315 313 310 307 311 312 314 316 317 314 317 316 311 306 304 303 304 305 307 309 309 310 311 313
318 318 318 317 317 318 319 319 319 320 320 320 320 319 317 317 315 314 314 313 312 312 308 310 312 312 312 313 317 318 319 318 317 304 302 302 301 301 303 303 303 304 305
316 316 318 318 318 318 318 318 317 318 318 318 318 318 317 317 315 314 313 312 312 311 309 307 310 310 310 311 312 313 314 318 314 298 298 298 297 296 296 296 297 297 297
318 319 318 317 318 318 317 317 318 317 318 318 318 317 316 317 315 314 313 312 311 311 311 309 308 310 310 310 310 312 312 307 300 297 295 295 295 295 295 295 295 296 296
310 308 307 306 307 309 313 316 317 317 317 318 318 318 317 316 315 314 313 312 312 311 311 310 309 309 310 311 310 308 307 306 299 297 295 293 294 294 294 293 293 293 293
300 300 299 298 297 297 297 300 314 315 308 304 301 299 298 299 299 307 313 312 311 310 310 309 308 309 308 307 305 301 305 299 291 294 293 291 290 290 290 291 292 292 291
294 294 293 292 291 292 290 293 302 302 300 298 294 293 292 291 290 289 289 288 291 307 308 308 307 305 294 292 292 294 297 300 294 287 292 286 288 286 288 289 290 289 289
291 290 289 289 288 288 289 290 291 292 292 292 292 292 290 289 288 287 287 286 286 286 286 296 291 287 286 285 287 291 292 292 286 283 287 284 285 283 286 287 288 288 287
287 288 287 287 286 287 287 288 288 288 287 287 287 290 289 287 287 286 285 284 283 283 283 284 283 282 283 284 285 287 287 283 282 281 282 281 283 281 283 282 285 286 286
285 285 286 286 285 285 287 286 286 285 284 284 286 287 286 286 287 288 285 283 282 282 284 284 283 283 283 284 285 285 283 284 280 278 278 282 280 278 268 270 272 284 285
283 283 283 284 285 285 286 286 285 285 283 283 284 284 285 285 285 285 284 283 280 280 280 279 278 277 276 277 278 273 274 281 277 271 271 274 271 280 278 271 270 272 272

GFSMA_sfc_thetae_096.txt.gz
Theta_e
335 333 332 331 326 327 329 329 329 330 329 331 332 330 329 329 330 330 333 330 332 340 342 342 341 340 338 337 336 333 333 332 331 330 330 329 327 328 328 325 324 325 324
334 332 332 331 330 329 328 328 327 329 330 330 329 329 328 328 329 330 331 330 329 333 338 340 339 338 338 336 335 333 332 330 330 329 328 328 328 326 324 323 324 325 323
332 331 329 328 328 329 327 323 326 327 327 328 328 328 328 327 328 328 330 329 329 328 331 335 337 337 336 336 334 333 331 330 329 327 326 326 325 323 324 323 324 323 323
331 329 327 328 328 328 328 326 326 326 327 326 327 326 326 326 327 327 328 329 328 328 328 330 333 334 335 334 333 331 330 329 328 328 325 324 323 324 324 322 323 323 322
329 328 327 327 328 328 328 327 326 326 325 325 325 325 325 325 325 327 326 326 326 325 325 327 328 328 331 332 332 330 328 328 327 327 326 324 323 322 323 322 323 322 322
327 327 327 326 328 327 327 327 325 325 325 325 325 324 324 325 325 325 325 326 324 322 323 323 325 324 325 329 330 328 327 327 326 327 326 325 324 323 324 323 322 322 322
330 329 328 325 326 326 326 326 325 324 322 325 322 318 318 322 323 324 324 322 322 321 321 321 320 321 324 326 328 329 329 328 327 327 326 325 324 324 322 323 323 322 322
330 330 328 326 325 325 325 325 325 323 323 325 320 316 311 314 318 322 322 321 319 319 319 320 319 318 320 323 323 327 328 328 328 327 326 326 324 322 322 323 323 322 322
329 329 328 326 326 326 324 325 325 323 321 323 321 316 309 308 313 316 319 320 318 318 319 319 319 318 318 319 321 321 321 323 328 328 326 323 323 323 322 323 323 322 322
328 329 327 326 325 327 326 325 325 324 322 319 320 320 317 315 311 308 314 316 316 316 317 318 318 318 318 318 318 316 315 315 320 326 327 326 326 326 325 324 324 323 323
327 327 326 325 326 326 325 324 324 323 323 321 321 318 316 315 315 312 309 310 313 315 316 317 318 318 318 318 318 317 313 312 313 320 325 326 327 327 327 327 326 325 324
325 326 327 326 325 325 324 324 324 323 322 322 322 320 319 314 312 311 310 312 312 312 315 316 316 317 318 318 318 315 312 310 311 315 319 323 326 327 327 328 328 327 326
323 324 324 323 323 324 324 324 323 323 323 322 321 320 320 317 316 316 313 311 310 310 312 315 316 317 317 318 318 314 312 308 309 311 314 317 320 323 326 327 328 328 328
323 324 323 323 323 322 324 324 323 322 322 322 321 320 319 317 317 316 313 311 307 308 310 311 316 316 317 317 316 311 316 307 307 308 310 312 314 316 318 320 323 325 326
321 321 322 322 324 324 323 323 323 322 322 322 321 319 318 318 318 317 316 315 311 306 307 311 310 315 317 317 315 316 316 309 306 305 305 307 310 312 313 314 315 317 319
321 320 320 321 322 323 323 323 322 323 322 322 322 319 318 317 318 317 316 315 314 310 307 311 313 314 316 316 314 316 316 310 305 303 303 303 304 307 308 309 310 311 312
319 319 319 320 319 319 319 319 320 320 320 321 321 319 317 317 316 316 316 314 313 312 309 311 313 313 314 315 316 317 317 316 313 303 302 301 300 301 302 303 303 304 304
316 317 318 317 317 317 318 317 317 318 318 318 319 320 317 317 316 316 315 313 313 312 310 309 310 311 312 314 315 316 315 311 302 298 297 297 297 297 297 297 297 297 297
314 315 315 317 317 318 317 317 317 317 317 318 319 318 317 316 315 315 315 313 312 312 311 309 308 311 311 311 311 311 304 300 298 297 295 295 295 295 295 295 296 295 295
315 311 309 307 307 307 310 314 317 317 317 317 318 318 318 317 315 313 313 314 313 311 311 309 309 309 310 311 311 309 305 301 296 295 294 294 294 294 294 294 294 294 293
302 302 300 298 298 297 295 297 308 315 312 305 301 299 301 312 308 310 314 313 312 310 310 309 308 308 308 308 307 304 304 295 292 295 292 291 290 290 291 292 292 291 291
294 294 292 291 291 291 290 292 302 303 300 298 295 294 293 292 291 291 291 289 295 310 309 309 308 307 302 297 296 298 298 294 291 288 289 286 288 287 288 289 289 289 288
290 289 288 288 287 288 289 290 291 292 292 292 292 291 290 289 289 288 287 287 286 286 286 302 299 292 290 289 291 293 293 290 286 284 288 283 285 283 285 287 288 288 287
287 287 286 287 286 287 288 288 288 288 288 288 288 288 287 287 287 287 286 285 283 283 283 284 283 283 284 285 287 289 288 283 282 281 283 282 284 281 283 281 286 287 286
284 284 285 285 285 286 287 287 287 286 285 285 286 286 286 286 287 288 285 282 281 280 283 283 283 283 283 284 285 287 285 285 280 277 277 283 280 279 278 280 279 284 284
283 283 283 284 285 285 287 287 286 285 284 283 284 285 285 285 286 286 284 282 279 278 278 278 277 277 277 278 280 280 285 282 279 276 276 278 279 282 280 279 278 278 279

GFSMA_sfc_thetae_099.txt.gz
Theta_e
340 340 340 340 342 342 340 340 339 339 339 339 340 338 336 335 332 334 336 332 333 340 343 343 342 341 340 338 338 336 334 333 332 331 331 331 330 330 328 328 327 327 326
339 338 336 336 336 337 337 336 334 336 336 337 335 335 334 334 330 331 333 336 330 334 339 343 342 341 340 338 337 336 334 333 332 330 330 329 328 328 327 326 326 324 324
339 337 335 335 335 335 334 332 331 332 334 336 335 332 334 331 329 329 332 332 333 328 333 336 338 339 338 338 336 335 334 333 332 330 329 328 327 327 325 325 325 325 323
337 335 334 334 336 333 331 329 329 329 330 329 329 329 334 330 329 328 329 331 340 337 331 332 333 336 336 337 336 335 333 332 329 328 327 327 326 324 324 324 324 324 323
334 334 333 333 336 333 331 329 328 328 328 328 328 329 330 329 328 328 327 329 336 337 338 329 328 330 333 335 335 334 332 329 328 328 326 325 324 324 324 323 324 323 323
333 332 332 332 333 332 329 329 326 328 329 328 327 327 329 329 329 327 327 327 329 335 336 336 336 332 327 331 333 333 331 329 328 329 326 326 325 324 324 323 323 323 322
332 330 330 330 331 330 329 328 327 326 326 328 324 321 322 326 325 327 327 326 324 325 330 334 334 334 331 327 330 332 330 329 329 328 327 326 326 323 324 324 323 323 322
331 329 329 329 329 328 328 328 326 324 325 327 321 318 313 316 321 325 326 325 324 324 324 329 331 332 332 329 328 328 329 330 328 327 328 327 326 325 324 322 323 323 322
331 330 331 330 328 329 327 327 327 324 322 325 324 319 311 311 314 319 322 325 323 322 323 324 328 328 328 327 326 324 321 324 328 328 329 327 326 324 324 323 323 323 323
329 328 330 331 329 328 327 329 328 326 325 321 323 326 322 321 314 310 316 320 322 322 321 323 326 326 326 326 323 320 315 316 321 327 329 327 325 325 324 324 324 324 323
329 323 322 328 328 328 329 330 326 326 325 324 322 319 318 319 320 316 311 314 317 320 321 322 324 325 326 325 325 321 313 312 314 321 326 326 326 325 326 326 325 325 325
324 324 326 328 329 328 329 330 328 326 325 325 324 321 319 317 317 319 316 315 314 315 317 319 320 322 325 324 322 316 312 310 311 315 320 323 325 326 326 327 327 326 326
323 324 328 327 327 329 329 331 326 327 325 324 323 322 322 321 324 322 320 316 314 313 314 317 319 321 323 324 323 315 312 308 309 312 315 318 321 323 325 326 327 328 328
327 328 328 329 328 329 326 327 326 326 326 324 324 323 322 322 322 322 322 318 311 310 311 313 318 321 323 323 321 311 320 307 307 308 310 312 314 316 318 320 323 325 326
327 326 327 326 325 324 325 327 324 325 325 324 324 323 322 321 322 322 322 320 316 307 308 311 313 320 323 323 319 321 322 311 307 306 306 308 311 312 313 314 316 318 320
323 325 325 324 323 324 327 326 324 324 324 324 324 322 321 321 322 321 318 320 317 313 308 314 315 319 321 320 319 322 322 312 305 304 303 304 305 308 309 310 311 312 313
322 322 322 323 324 324 325 323 323 323 322 322 322 321 320 320 318 318 318 317 314 313 310 311 317 320 321 321 320 321 322 322 314 302 301 301 301 302 303 304 304 305 305
320 321 322 322 321 322 321 321 320 321 321 320 320 320 319 319 318 318 317 315 314 314 312 309 313 317 319 319 321 321 321 313 305 298 298 298 297 297 297 297 297 298 298
319 320 320 320 319 319 318 318 319 321 320 320 320 320 319 318 316 316 316 314 314 313 314 312 311 315 318 320 319 312 304 301 298 297 296 296 296 296 296 296 296 295 295
320 320 318 316 314 312 314 318 318 319 318 320 319 319 319 318 317 316 315 314 314 313 313 316 312 311 316 315 317 309 303 301 296 296 295 294 295 295 295 294 294 294 294
308 306 303 300 299 299 297 301 310 317 318 310 303 300 297 309 308 312 315 315 313 312 312 311 310 310 310 310 311 310 302 295 293 295 293 292 292 292 292 292 292 291 290
296 295 293 293 293 293 290 293 303 306 302 299 297 295 293 293 292 292 292 295 307 313 312 311 310 308 309 305 303 306 295 293 291 291 288 286 289 288 289 289 289 288 288
290 289 289 289 288 290 290 291 292 295 293 293 292 291 291 290 290 290 288 288 286 287 291 308 309 303 297 296 297 297 298 295 288 285 288 284 285 284 286 288 288 287 287
286 286 287 288 288 288 288 289 289 290 288 288 288 288 288 288 288 288 287 285 285 285 285 286 286 285 285 287 290 292 288 283 283 282 285 282 284 281 282 284 287 287 287
284 284 286 286 286 287 288 287 288 287 286 285 286 287 286 286 287 288 285 283 281 280 284 285 285 285 285 286 288 289 286 286 281 278 278 283 282 279 281 281 284 285 284
283 284 283 284 285 286 287 287 287 286 284 284 285 285 286 285 286 285 284 282 279 278 279 279 278 279 280 281 282 283 287 284 280 278 278 281 282 283 281 284 285 286 285

GFSMA_sfc_thetae_102.txt.gz
Theta_e
346 347 346 347 347 346 347 345 344 343 344 342 343 341 340 341 340 339 337 332 332 338 341 343 344 343 341 341 339 339 337 337 335 334 333 333 332 331 331 330 329 328 327
347 343 344 344 344 345 345 344 343 343 343 342 340 340 340 340 340 340 336 336 329 333 338 343 344 343 342 340 338 337 336 335 334 333 332 331 331 330 328 328 327 327 326
346 344 341 341 343 344 344 344 343 342 340 339 339 339 339 338 338 339 336 334 338 327 332 337 340 341 341 340 337 337 335 334 334 333 332 330 329 328 327 327 326 325 326
343 343 339 340 340 341 339 338 336 334 334 337 337 338 337 337 336 338 333 332 336 334 330 330 334 337 338 339 337 336 335 334 334 333 331 329 328 327 326 325 326 326 324
342 342 339 339 340 338 337 335 333 333 332 335 335 335 336 334 334 333 329 331 332 333 334 330 330 330 333 336 337 336 335 333 331 330 329 328 326 326 326 325 325 323 323
341 341 340 338 338 335 337 335 333 332 331 331 330 328 331 334 334 331 328 329 330 331 333 334 333 332 328 333 335 335 335 332 331 330 328 327 326 326 325 325 323 324 324
341 340 338 336 335 334 334 333 331 328 329 332 328 325 326 330 329 329 330 328 327 329 332 338 337 336 334 329 332 335 334 332 330 330 328 328 327 326 326 324 324 324 323
341 338 336 333 334 333 332 333 332 326 328 331 323 321 316 318 327 328 328 328 327 327 329 333 335 335 335 334 332 331 333 332 330 329 329 328 326 325 324 324 324 323 323
339 337 335 332 332 333 332 333 331 328 324 327 328 324 315 316 317 323 325 327 325 324 326 326 327 332 333 333 330 327 323 324 329 330 330 328 327 326 324 325 324 324 323
335 335 332 331 331 332 332 333 332 331 329 323 326 329 330 323 318 312 317 325 328 325 325 324 325 326 330 330 327 323 317 317 322 327 329 329 327 326 325 325 324 325 324
333 334 332 332 331 332 331 333 334 334 332 327 325 324 325 325 327 321 313 316 322 324 327 327 326 325 325 327 327 322 315 313 316 323 327 328 327 326 325 324 324 324 325
331 332 333 334 332 331 330 329 331 334 332 330 327 326 325 322 322 320 318 318 317 319 325 324 324 325 324 324 324 316 312 310 312 318 322 325 325 325 325 325 325 325 325
329 331 333 328 329 330 331 330 329 333 332 329 327 324 324 323 324 322 320 318 316 316 318 321 322 323 323 324 324 317 312 308 309 312 316 319 322 323 324 325 326 326 327
332 336 331 327 327 329 330 331 330 334 333 332 328 326 324 324 328 322 321 318 316 315 316 316 320 321 322 323 321 311 321 307 307 308 310 313 315 317 319 321 323 324 326
336 332 329 327 327 328 330 329 331 332 329 327 327 328 324 325 326 324 322 321 317 311 312 316 319 321 322 323 320 323 325 310 307 306 306 309 311 313 314 315 317 319 321
332 331 328 329 327 328 329 330 330 328 325 326 327 324 325 327 325 324 322 321 321 317 312 317 317 318 320 321 319 325 325 312 306 304 304 305 307 309 311 311 312 314 315
330 328 328 325 324 326 327 326 325 327 327 323 326 324 324 325 323 323 324 327 325 323 312 314 317 319 318 319 321 324 324 325 314 302 302 302 303 304 305 306 308 309 309
328 328 327 324 323 325 325 326 325 325 324 322 323 322 322 322 322 323 323 322 319 320 316 311 315 316 317 319 320 323 323 313 306 299 299 299 299 298 298 298 299 299 300
326 325 325 323 323 327 325 324 324 323 323 323 322 322 322 322 321 320 321 318 317 316 315 313 312 316 318 320 319 314 308 305 299 297 296 296 296 296 296 296 296 296 296
323 323 325 322 322 322 322 321 321 321 321 323 326 324 324 322 320 319 318 317 316 314 314 312 312 313 315 319 311 303 301 303 299 297 296 295 295 295 295 295 294 294 294
319 317 312 309 309 309 301 307 316 320 320 319 309 306 300 298 300 312 317 316 315 313 312 312 311 312 313 314 309 308 301 296 296 295 294 294 293 292 292 293 293 293 292
294 299 300 300 296 293 291 292 302 312 307 306 301 299 296 295 294 294 296 299 309 313 311 311 312 310 311 313 314 308 296 294 289 293 288 286 289 288 288 289 289 289 289
288 289 292 291 290 290 290 292 293 300 296 294 295 295 295 293 292 291 289 289 288 289 296 313 311 310 306 305 306 299 299 298 291 290 288 283 286 284 287 288 288 288 287
285 285 286 288 288 288 288 289 289 291 290 289 289 290 291 290 289 290 289 286 285 285 286 288 291 286 287 291 299 299 294 285 285 284 288 282 284 282 284 287 288 287 286
284 283 284 286 287 287 288 288 288 287 286 286 287 287 287 287 288 289 287 284 283 281 285 286 286 286 287 287 290 290 287 287 283 282 282 283 282 281 282 283 285 286 284
282 282 281 283 285 285 287 287 287 286 284 284 284 285 285 285 285 286 284 282 279 280 281 280 281 280 281 281 283 284 289 287 282 280 280 282 280 281 278 282 282 282 282

GFSMA_sfc_thetae_105.txt.gz
Theta_e
350 347 346 345 347 345 347 346 343 344 344 344 344 343 343 343 343 338 340 333 333 335 342 342 343 342 342 342 341 340 339 339 338 337 337 336 335 335 334 332 331 329 326
348 346 345 344 343 345 348 346 345 344 344 344 344 343 342 343 341 341 339 337 330 331 338 341 342 342 343 342 340 339 339 338 337 336 335 333 332 332 331 330 329 328 326
349 349 344 344 343 345 348 346 346 346 343 342 341 343 341 342 340 339 340 338 335 327 331 335 337 336 343 343 340 338 337 336 336 335 333 331 331 330 329 328 328 327 327
349 348 344 342 344 344 345 344 344 342 340 340 339 338 341 340 340 339 339 339 336 336 331 331 328 333 340 342 340 338 336 335 335 334 332 331 330 329 328 327 327 325 326
346 347 344 342 344 342 343 341 341 340 338 338 337 338 339 338 338 337 336 336 335 335 337 330 328 328 331 337 339 338 337 335 334 334 332 330 330 328 327 326 323 325 325
347 347 342 343 342 338 340 337 336 337 336 336 334 333 335 337 337 334 334 334 333 334 335 335 331 330 328 333 335 338 337 335 334 333 330 330 329 328 327 325 322 322 322
348 344 342 343 341 336 339 336 335 334 333 335 331 329 332 334 334 333 333 332 330 328 331 331 330 331 331 329 333 337 336 336 334 332 330 330 328 327 326 325 322 322 322
344 340 341 340 340 336 338 335 334 331 332 332 326 323 317 320 327 331 331 329 328 327 327 330 330 331 331 334 333 333 334 335 333 332 331 329 327 326 325 325 322 322 324
344 341 341 340 338 337 335 334 334 330 327 329 329 324 316 316 319 326 329 329 328 327 327 326 329 331 334 336 330 329 325 327 331 332 331 329 327 326 326 325 322 322 324
340 340 342 338 336 337 334 334 334 332 332 325 328 329 331 327 320 315 322 327 328 326 326 326 326 327 329 334 330 325 319 318 323 329 330 329 328 326 325 324 324 322 325
339 339 340 337 334 334 334 332 333 333 334 330 326 325 329 328 328 322 314 319 324 327 327 326 326 326 327 326 331 327 316 314 317 324 328 329 329 327 326 325 325 323 325
337 336 335 335 335 336 333 332 334 336 335 333 332 329 327 324 322 323 321 319 319 322 325 326 327 326 326 325 324 317 313 312 314 319 323 326 326 326 326 325 325 324 325
332 331 333 331 334 333 326 324 328 333 335 333 332 331 328 330 329 326 324 322 317 319 321 326 326 328 327 326 324 315 313 309 311 315 318 321 323 323 324 324 324 325 325
334 331 331 331 332 332 331 332 333 334 333 332 332 332 331 330 330 328 324 322 316 314 316 317 323 326 326 325 322 312 318 307 308 310 313 316 317 318 319 320 322 324 324
334 332 331 331 331 332 331 332 329 330 332 334 335 331 329 328 329 327 326 322 317 312 311 316 317 323 325 325 321 319 321 308 306 306 307 310 313 315 315 317 318 320 321
335 334 332 330 328 328 331 331 327 330 331 334 334 332 330 329 328 326 325 322 320 316 312 320 321 321 322 322 318 322 322 310 306 304 304 305 308 310 311 312 314 315 317
334 332 331 328 328 328 325 325 328 326 328 330 329 327 325 327 327 326 324 326 321 320 314 318 323 325 321 320 320 321 321 321 311 304 303 303 304 305 306 307 308 310 311
332 332 328 329 329 327 328 321 319 323 325 326 327 325 323 325 326 326 325 321 320 321 318 314 320 319 319 320 320 319 321 321 309 301 302 302 301 301 301 301 302 302 303
327 326 328 328 328 328 327 325 321 320 325 327 327 324 322 324 322 323 323 321 322 321 321 315 313 318 318 319 318 314 305 301 299 298 297 297 298 298 298 298 298 298 298
324 325 326 327 326 326 327 328 325 324 325 326 326 325 325 323 321 322 321 320 321 319 317 315 314 313 315 317 315 302 300 301 297 298 296 296 296 296 296 295 295 295 295
295 308 318 313 317 314 315 323 324 322 322 322 317 314 305 299 296 298 314 319 318 317 315 312 311 312 313 310 306 305 299 296 295 295 294 294 293 293 294 294 294 294 293
289 291 294 298 297 295 292 295 312 315 312 310 303 301 299 296 296 291 294 296 307 315 313 312 311 310 312 310 307 301 295 291 289 295 289 287 290 288 289 290 291 290 290
288 286 287 289 290 291 291 294 295 299 295 295 295 296 296 295 295 294 291 289 288 289 295 313 311 311 311 312 308 299 298 296 292 290 288 283 286 284 287 289 289 289 288
285 285 284 286 287 288 289 290 290 291 290 289 289 290 291 292 291 293 290 286 285 285 286 289 293 287 289 298 306 303 298 286 287 286 288 282 284 283 285 286 288 287 287
282 282 283 283 285 285 287 288 288 287 285 285 286 287 287 288 287 290 287 285 284 284 285 286 286 287 287 288 293 294 289 289 285 284 284 283 282 281 283 284 285 286 285
281 281 281 281 283 283 285 286 286 285 283 283 284 284 285 285 286 286 285 284 280 280 282 282 282 281 283 284 286 288 292 291 283 282 283 281 280 281 278 282 282 283 283

GFSMA_sfc_thetae_108.txt.gz
Theta_e
345 345 344 344 345 345 344 342 342 342 341 340 341 340 339 339 338 337 334 333 334 336 343 344 344 342 341 340 341 341 341 340 340 339 337 336 335 334 333 332 330 329 327
344 343 343 341 344 343 343 342 341 339 339 339 338 338 338 338 338 336 333 332 330 331 337 343 342 341 341 340 340 340 340 339 339 338 337 335 335 334 332 331 330 328 327
346 344 342 340 340 342 340 342 340 341 339 338 337 337 337 338 337 336 335 332 330 327 329 336 339 338 338 341 341 339 339 338 337 337 336 334 333 332 331 330 329 327 326
344 343 342 339 341 340 341 341 340 338 337 336 335 336 336 336 336 335 334 334 333 333 328 329 333 337 338 338 340 340 339 338 336 336 334 333 331 331 330 329 328 326 324
342 343 342 341 341 339 339 340 338 337 335 334 336 334 334 334 333 335 333 332 331 333 332 328 329 331 332 334 336 340 339 338 337 335 333 332 331 330 329 328 326 324 326
342 342 342 341 340 339 338 339 336 337 335 334 332 332 332 332 333 333 333 332 332 331 331 332 328 327 326 329 325 338 339 338 336 335 334 332 331 329 328 326 324 324 326
342 341 341 340 339 337 336 337 334 333 331 332 328 328 327 329 331 329 329 330 328 328 328 330 330 331 328 327 327 331 339 338 336 334 334 332 330 328 327 324 324 323 322
339 340 340 339 338 336 335 335 333 330 331 332 326 321 316 320 324 328 330 328 327 327 325 327 329 330 330 328 329 332 336 337 337 335 333 331 329 328 326 325 324 323 323
338 339 340 339 336 335 333 334 332 329 327 330 328 319 313 312 315 324 326 325 325 324 323 324 327 329 330 330 329 328 325 327 333 335 333 330 329 327 326 325 323 324 324
336 338 339 338 335 334 332 332 333 330 328 325 327 326 324 321 314 312 319 325 325 324 323 324 326 327 328 330 328 324 319 319 325 331 332 331 329 327 325 324 323 324 323
335 336 337 336 334 333 331 333 332 330 328 325 325 324 324 324 322 316 310 316 322 323 324 323 324 324 327 327 329 326 317 316 319 325 329 329 328 327 325 324 325 324 323
329 334 334 337 336 333 331 331 326 330 328 328 327 325 322 322 320 318 314 313 315 319 323 324 323 323 325 326 325 320 315 313 315 320 324 326 326 326 326 323 323 323 323
324 327 333 334 334 332 331 331 330 329 328 327 327 325 326 324 324 322 318 315 314 317 319 324 324 324 325 326 326 318 316 311 312 316 319 322 323 323 324 323 323 324 324
322 328 330 332 332 332 331 331 329 327 324 323 324 327 326 326 326 323 319 316 314 314 315 317 324 325 325 325 324 313 319 308 309 311 314 317 318 319 320 320 321 321 322
322 330 332 331 331 331 331 324 322 323 322 326 321 325 326 326 327 324 322 320 315 310 311 316 316 324 326 325 322 320 323 310 308 308 309 312 315 316 316 317 317 318 320
327 330 331 331 329 330 329 326 326 327 329 328 328 327 326 326 325 325 322 320 319 314 310 316 317 319 324 324 320 320 321 309 306 305 306 307 310 312 312 313 314 315 317
327 329 330 330 329 328 328 328 327 327 326 325 326 325 325 325 324 325 322 320 319 318 314 315 318 320 321 321 321 321 317 315 312 305 303 305 305 307 308 309 309 311 313
311 327 329 329 328 326 326 326 324 324 323 318 321 323 323 323 323 324 323 322 320 320 318 314 318 318 319 321 321 319 320 320 313 303 302 302 302 302 303 303 304 305 305
302 313 325 326 325 325 323 323 322 322 320 320 320 321 322 322 320 322 321 321 321 319 319 317 315 319 318 320 318 318 305 301 300 300 298 299 300 300 301 301 301 301 301
296 298 311 322 324 325 324 323 320 318 316 318 322 323 323 320 318 322 320 320 320 319 319 318 315 315 316 318 317 304 299 300 297 298 296 296 297 297 297 297 297 297 297
292 292 294 297 300 303 304 313 322 319 316 315 316 310 303 299 295 297 312 319 319 318 317 316 314 313 313 313 304 305 298 294 294 295 293 294 294 294 294 295 296 295 294
288 289 288 290 292 293 290 295 313 319 317 313 304 302 298 297 294 291 291 292 296 312 315 315 314 312 312 313 306 301 294 292 289 294 289 287 290 288 290 292 293 292 292
285 285 286 286 286 287 289 292 296 299 296 294 296 297 296 294 294 295 290 289 288 288 289 310 313 312 312 312 305 299 298 296 290 289 288 283 286 285 288 289 290 290 290
281 281 282 284 285 285 287 288 289 290 288 287 288 289 290 289 289 292 289 286 285 285 286 289 292 289 290 310 305 303 299 288 288 286 287 281 284 283 286 287 289 289 288
281 281 281 281 282 283 286 286 286 285 284 284 285 286 286 286 288 291 287 285 284 283 286 287 287 287 288 292 296 293 289 289 285 285 285 282 282 282 283 284 285 287 286
284 283 281 281 282 281 284 285 284 283 282 282 282 283 285 285 286 286 285 284 280 279 281 282 282 283 285 286 287 290 293 293 284 283 284 281 281 281 278 282 283 283 283

GFSMA_sfc_thetae_111.txt.gz
Theta_e
341 341 342 343 343 343 342 340 340 340 339 339 339 337 338 337 336 335 333 333 334 340 345 345 345 345 343 340 339 340 341 341 341 339 338 336 335 335 333 332 332 331 330
342 341 340 340 342 343 342 341 339 339 339 339 337 336 336 336 336 333 332 330 330 333 337 343 345 344 343 340 339 338 341 339 340 339 337 336 334 333 332 331 330 329 328
341 341 339 338 341 342 341 340 337 338 337 337 335 335 334 335 334 333 331 330 328 327 330 337 342 342 342 341 339 336 339 338 339 338 337 336 334 333 331 330 329 328 327
341 340 338 335 335 340 338 339 337 335 335 334 332 332 333 333 334 333 331 329 328 329 326 329 335 338 339 340 340 340 338 338 338 337 336 335 334 333 331 330 329 327 327
341 340 338 337 336 335 336 336 334 336 333 333 332 331 331 332 332 333 330 330 329 330 330 326 327 330 334 336 339 339 335 338 338 337 336 335 333 332 331 329 328 327 326
341 339 338 338 336 335 332 334 335 334 335 333 333 330 329 332 332 329 329 330 331 329 329 329 326 328 328 334 337 336 333 339 338 337 335 334 333 331 330 329 328 326 324
338 339 338 337 339 337 335 334 334 333 327 331 326 324 323 329 329 328 331 330 329 328 326 327 327 326 328 328 331 334 335 340 339 337 335 333 331 330 329 328 327 325 326
324 337 338 337 338 336 334 333 333 328 327 330 323 321 318 319 323 329 329 327 327 326 324 325 328 329 329 327 327 329 332 331 339 337 335 332 330 329 329 327 326 325 325
319 324 336 337 337 335 334 332 329 329 324 326 325 318 312 310 312 317 324 327 326 324 321 322 325 328 330 328 326 325 323 323 334 336 334 331 330 329 328 327 326 325 325
314 319 325 334 336 334 331 328 322 322 318 323 325 326 319 316 310 311 316 321 325 324 323 322 324 324 328 330 327 323 319 319 326 332 333 332 331 330 328 327 325 325 324
311 315 321 328 331 332 331 323 320 323 326 326 320 324 324 319 316 311 310 315 322 324 323 323 323 324 324 326 328 324 316 316 318 325 330 331 331 330 328 327 325 324 324
307 311 318 325 330 330 330 328 325 326 326 326 326 325 322 320 319 316 310 309 315 320 323 323 322 324 325 327 326 320 315 313 314 320 325 328 329 328 327 326 325 325 325
306 308 315 320 326 328 329 328 328 328 327 325 325 324 324 324 321 321 314 311 312 317 320 322 322 321 323 325 325 318 314 311 312 316 320 323 324 324 325 324 324 325 324
307 310 312 318 321 326 328 329 328 325 322 326 324 325 325 324 323 321 320 313 311 313 316 317 323 321 323 324 323 313 320 309 310 312 315 317 319 319 320 320 321 322 322
308 312 312 316 315 319 321 327 326 323 321 317 317 325 324 324 324 323 320 317 314 310 311 315 317 323 323 323 321 322 324 310 309 308 309 312 315 316 316 317 317 318 319
304 307 316 317 320 316 321 326 325 323 323 322 320 321 321 324 324 324 321 318 317 312 309 315 317 320 325 324 320 323 324 312 307 306 306 308 310 312 313 313 314 315 316
301 305 308 322 324 325 325 324 324 322 321 320 322 321 319 324 323 323 322 321 317 316 314 311 314 316 322 323 322 322 322 322 316 306 306 306 306 307 308 309 309 311 312
297 300 306 316 324 324 324 324 323 323 322 322 322 321 321 323 321 321 322 320 319 318 317 312 315 316 318 321 323 320 320 319 318 306 305 305 305 304 304 305 305 306 307
293 295 299 301 310 323 325 326 325 325 325 324 323 321 320 320 321 321 320 320 319 320 319 315 314 318 318 320 319 318 311 305 303 303 301 301 302 302 302 302 303 304 304
289 291 293 295 297 299 302 307 323 322 319 318 319 316 316 318 320 321 321 320 320 319 318 317 316 316 318 318 319 307 301 301 298 299 298 299 300 300 300 300 300 302 302
286 288 289 290 291 292 291 293 302 318 315 314 311 308 306 304 303 308 318 318 318 318 317 316 315 314 315 314 312 309 301 294 294 295 295 295 296 296 297 297 299 299 299
283 284 285 286 287 289 289 289 294 317 314 310 303 300 299 295 293 294 294 291 297 316 316 315 315 312 313 314 309 305 295 293 291 294 289 287 290 289 291 293 295 296 297
282 282 282 283 284 286 288 288 288 294 298 297 296 296 294 295 296 292 290 289 287 288 289 298 311 314 312 313 309 303 299 300 292 290 290 284 286 286 289 291 292 293 294
282 281 281 282 282 284 287 287 285 285 285 286 286 287 288 289 291 293 289 287 285 285 286 287 287 287 290 308 310 306 302 290 288 287 287 282 284 284 286 288 290 290 290
282 281 282 282 282 282 285 285 285 283 283 282 283 285 285 286 289 291 287 285 283 283 286 286 286 286 287 293 299 295 290 289 285 285 285 283 283 282 284 284 286 288 287
282 281 281 281 283 282 285 284 283 282 280 281 282 283 285 284 285 286 284 284 280 279 281 282 282 283 283 284 287 289 293 293 285 284 285 282 282 281 278 282 284 284 284

GFSMA_sfc_thetae_114.txt.gz
Theta_e
341 343 343 342 341 341 341 340 339 338 338 337 338 336 336 335 335 334 332 332 333 340 344 346 347 346 345 343 340 338 339 340 339 341 339 337 336 335 334 333 332 332 331
340 340 342 341 341 341 341 340 339 338 337 337 336 336 336 336 335 333 332 331 330 333 339 343 345 346 346 343 339 338 338 339 340 340 338 336 335 334 333 332 331 331 330
340 340 339 340 342 342 341 340 338 337 337 336 335 335 335 335 334 332 331 330 329 328 331 337 341 343 344 343 340 338 337 338 339 339 338 336 334 333 332 331 330 330 330
342 339 339 339 338 341 340 339 338 335 335 335 334 332 332 332 333 331 330 329 328 328 326 329 334 339 341 342 341 339 339 336 336 339 337 335 334 333 331 330 329 328 328
338 339 338 338 336 336 338 338 337 335 333 333 333 330 331 331 331 332 329 328 327 326 325 325 328 331 335 339 341 340 338 333 336 339 337 335 334 333 331 330 329 328 327
326 334 337 337 335 333 334 335 336 335 333 333 332 330 330 331 331 330 329 330 328 329 328 326 325 326 327 333 336 339 339 338 336 338 336 336 334 332 331 330 328 327 326
319 319 331 336 334 334 334 332 332 329 329 331 325 322 324 328 329 329 329 328 327 328 330 326 325 324 325 328 333 337 339 340 339 338 337 335 333 331 330 329 328 327 327
313 314 317 325 335 334 332 330 332 329 331 331 328 325 319 321 324 327 329 328 328 329 327 327 328 325 324 330 331 333 336 339 339 339 336 333 332 332 330 329 328 327 326
308 310 312 316 318 331 334 333 329 329 326 326 325 321 314 314 317 320 324 326 325 326 326 323 324 328 328 328 327 327 324 327 332 336 336 333 332 331 330 329 328 326 326
305 308 311 313 316 321 328 333 329 327 321 316 317 319 320 317 311 311 319 325 324 323 324 323 321 325 326 327 326 322 318 318 322 330 334 333 332 330 330 329 327 326 326
304 306 307 309 312 315 321 331 326 319 319 315 314 317 317 321 317 312 309 317 323 324 323 324 322 323 324 326 328 324 316 314 316 323 327 332 331 330 329 329 327 327 325
303 306 307 308 311 315 320 327 327 324 319 318 316 320 320 319 317 314 308 313 317 321 323 322 321 321 323 323 326 320 314 312 314 318 323 328 329 329 329 328 327 327 326
300 303 305 308 309 312 317 325 323 321 321 320 319 319 320 319 320 320 313 309 311 316 319 321 322 323 323 323 324 317 314 309 311 317 320 324 325 326 327 327 327 327 325
300 302 304 307 309 311 314 320 326 324 321 323 323 322 321 323 324 322 319 313 309 313 314 315 322 322 322 322 322 312 322 309 309 310 313 317 319 320 321 322 323 323 323
298 299 300 303 306 313 313 317 323 322 323 324 323 323 324 324 324 323 322 319 315 309 311 315 317 321 321 322 320 320 323 310 309 308 308 312 314 316 317 317 318 319 320
295 296 298 301 305 312 314 315 318 323 322 322 323 323 323 323 323 323 322 319 317 312 307 312 316 319 322 322 319 321 323 311 306 305 306 308 310 313 313 313 314 315 316
293 295 296 299 304 307 318 315 316 321 322 322 320 319 322 323 322 322 321 321 318 315 311 311 312 314 321 321 321 321 322 321 316 304 304 306 306 308 308 309 309 310 312
291 292 294 296 299 300 305 321 317 320 320 320 320 318 318 320 321 321 321 321 319 318 316 310 313 314 318 321 322 320 322 323 322 307 304 304 305 305 305 305 305 305 307
288 289 291 292 293 294 296 302 318 320 320 320 321 319 317 316 315 317 319 319 320 319 319 316 313 316 317 319 320 319 318 315 311 307 302 302 303 305 305 304 304 304 304
285 286 287 289 290 291 292 293 299 310 318 322 322 322 320 318 317 319 318 317 318 318 318 316 312 316 316 317 319 310 303 303 301 300 300 301 303 303 304 303 302 302 303
285 285 285 286 287 289 289 289 297 304 308 317 318 315 316 316 309 312 317 319 319 318 317 316 314 314 315 314 314 311 308 296 294 296 296 295 298 300 302 301 303 302 301
284 284 283 284 284 286 288 288 291 291 290 297 305 301 299 298 295 295 294 297 311 317 315 315 315 313 314 315 315 308 296 295 296 294 291 287 291 290 292 296 299 298 299
281 282 282 283 283 284 286 288 287 286 286 285 286 290 294 295 294 292 290 290 288 289 294 311 314 313 312 314 311 305 301 299 297 291 289 285 286 286 289 292 295 295 296
281 280 281 282 283 284 285 285 286 286 284 283 284 285 286 287 289 292 290 287 286 286 286 288 289 286 287 292 305 310 305 291 287 286 288 283 285 284 286 289 293 294 293
280 279 280 280 281 282 286 285 283 283 283 282 283 284 284 284 286 288 288 286 284 283 286 287 286 286 286 288 293 298 292 292 285 285 285 284 283 282 284 284 286 290 290
277 278 278 279 281 281 285 286 284 281 280 281 282 282 284 284 285 285 283 283 282 279 281 282 281 282 283 284 286 288 296 295 285 285 285 283 283 282 278 282 284 285 286

GFSMA_sfc_thetae_120.txt.gz
Theta_e
339 340 341 341 340 341 340 339 340 341 340 339 338 335 334 334 334 335 333 332 333 338 344 347 348 346 348 345 343 341 341 340 340 340 338 337 336 337 337 335 335 334 333
339 339 340 340 340 340 340 340 339 339 338 339 338 337 335 335 334 334 333 333 330 333 339 345 348 348 348 346 343 342 341 340 339 338 337 337 336 336 335 334 334 333 333
328 333 338 339 340 340 337 339 338 338 338 337 336 337 337 335 334 333 333 333 333 328 330 337 342 345 346 346 344 341 340 338 338 337 337 337 336 335 334 333 333 333 333
324 326 324 329 338 341 338 338 337 336 336 336 335 336 335 336 335 334 334 333 332 333 329 329 334 338 341 344 345 343 341 339 338 337 337 336 336 335 333 333 332 332 332
317 316 321 324 328 333 336 336 336 335 334 335 334 335 334 333 334 334 334 332 330 331 330 328 328 330 334 339 343 344 343 341 339 338 337 336 336 335 333 332 331 331 331
309 309 312 314 316 323 332 333 331 333 332 333 333 331 333 333 333 332 332 331 330 328 328 328 329 329 326 332 337 342 344 342 341 339 338 337 337 335 333 332 331 331 331
305 305 307 308 312 313 315 323 331 326 326 331 327 324 327 330 330 330 330 329 328 327 327 327 326 326 327 326 332 339 342 343 342 340 337 336 334 334 332 331 331 330 330
303 303 303 304 307 309 310 312 321 328 328 330 325 320 314 318 325 328 330 329 327 328 328 328 327 327 327 328 329 332 338 340 340 339 337 335 334 334 333 331 331 330 329
302 303 303 304 305 306 307 310 313 317 326 327 329 321 315 315 318 323 325 329 329 328 328 327 328 328 328 327 326 327 325 327 335 337 336 334 333 333 333 332 331 330 329
300 302 305 306 307 307 307 308 311 312 318 323 322 327 320 318 316 312 319 326 327 325 326 328 328 328 327 327 326 322 319 319 323 332 335 335 334 333 333 332 331 329 329
299 301 303 304 304 306 307 308 309 310 312 316 322 317 317 316 314 314 311 314 322 325 325 327 328 328 327 327 327 325 317 315 317 323 330 333 334 334 334 332 331 330 329
297 299 299 300 301 303 304 307 310 311 311 313 318 321 318 317 313 312 310 311 315 320 323 324 327 327 327 327 326 320 315 313 314 318 323 327 331 332 333 332 332 331 329
293 295 296 297 298 300 301 304 305 307 310 311 313 319 323 321 318 318 316 311 309 313 319 325 327 327 325 326 326 318 315 311 312 314 317 320 323 326 329 330 331 331 329
291 293 294 295 297 298 300 302 304 306 310 312 312 315 322 322 321 319 316 314 309 310 314 317 325 326 325 324 323 313 322 310 309 310 312 314 317 319 321 324 327 327 328
290 291 292 292 294 296 297 299 301 303 306 311 313 314 320 322 322 321 320 318 315 310 310 315 316 323 325 324 321 321 323 313 308 308 308 309 313 316 317 319 322 323 324
289 289 290 291 292 293 294 295 296 298 301 305 314 315 318 320 321 321 321 321 319 316 311 316 317 320 323 323 320 321 321 313 307 306 305 306 307 311 314 315 317 320 320
288 288 289 289 290 290 291 291 292 294 295 299 312 314 318 320 320 320 320 321 319 318 314 315 317 319 320 320 320 320 321 321 318 305 304 304 304 305 307 310 311 314 316
287 287 288 288 288 289 289 289 290 291 293 296 301 312 315 319 319 319 319 318 319 320 317 314 313 314 318 319 320 318 319 321 320 306 303 303 303 303 304 305 307 308 310
285 286 286 287 287 288 287 288 289 291 292 295 298 304 315 318 318 318 318 318 319 318 318 316 314 315 316 319 319 319 319 319 319 310 302 302 303 303 304 304 305 306 306
283 283 284 286 287 287 287 287 288 288 289 290 292 293 295 294 296 310 317 318 319 318 317 316 316 314 314 317 318 315 312 312 311 307 305 304 303 302 303 303 303 304 305
281 282 282 284 285 286 286 285 286 286 285 286 287 288 291 291 291 291 301 317 318 318 317 315 314 313 313 313 313 316 313 305 301 302 302 300 303 305 304 301 304 303 304
279 280 281 281 282 285 286 286 285 284 284 283 283 284 287 288 288 290 291 294 297 317 315 315 315 313 313 314 315 315 304 301 302 298 300 294 295 297 295 298 297 300 300
277 279 279 280 280 283 285 285 285 283 282 282 282 283 284 285 285 288 290 288 287 287 288 299 313 314 314 316 315 313 307 310 308 297 298 292 288 288 288 292 294 295 297
275 277 278 278 278 281 284 284 283 282 281 281 281 282 282 283 284 285 287 287 285 285 285 286 286 287 291 314 317 315 312 301 289 288 293 291 285 285 286 287 291 293 295
274 275 278 277 277 278 282 283 280 279 279 279 280 281 282 282 284 285 283 284 284 283 286 287 286 287 287 287 294 306 297 298 286 286 286 287 284 284 284 285 286 289 292
273 275 275 277 279 277 281 281 280 278 276 278 279 279 282 282 284 284 280 280 279 279 281 284 285 285 285 285 286 287 301 302 287 285 286 287 283 285 285 283 284 285 286

GFSMA_sfc_thetae_123.txt.gz
Theta_e
345 345 344 345 346 344 343 343 345 345 344 346 347 347 346 345 345 345 345 334 334 338 343 346 347 347 347 345 344 343 341 342 341 340 339 337 338 337 336 336 335 334 334
341 342 343 344 344 344 344 344 342 342 342 343 341 344 346 346 345 345 344 344 330 333 337 342 345 347 346 345 343 342 342 340 341 340 338 337 336 336 336 335 334 334 334
329 335 340 339 342 344 342 344 341 342 340 341 341 340 341 343 344 344 344 344 341 328 330 335 340 344 345 344 344 341 340 339 339 339 338 337 335 335 335 334 334 334 333
324 326 327 329 330 334 343 343 339 337 337 338 338 339 339 341 340 343 343 342 343 341 333 330 333 337 340 343 345 344 342 340 339 338 338 336 335 335 335 333 333 333 333
317 320 322 324 322 326 330 336 339 338 337 337 338 339 340 338 338 339 338 339 342 342 342 333 328 329 333 337 340 343 345 342 340 339 338 336 336 335 334 334 333 333 332
313 315 318 318 319 322 325 331 331 336 337 338 336 336 338 336 340 337 338 338 339 339 341 340 340 337 326 332 336 340 343 344 343 341 339 338 336 335 334 334 333 333 332
311 312 312 314 316 317 319 321 323 328 332 334 330 329 329 332 332 333 336 337 337 337 339 338 337 342 339 328 333 338 342 343 343 342 340 338 336 334 334 333 333 332 332
309 309 310 311 311 312 315 317 319 321 330 331 326 326 319 325 329 331 335 334 335 338 334 335 337 340 339 340 336 332 337 340 342 342 340 337 335 334 333 333 333 332 331
305 307 307 307 308 309 308 309 314 318 320 328 332 325 316 314 324 328 329 332 335 336 332 338 338 338 339 339 334 330 325 328 336 339 338 336 335 334 334 333 333 332 331
303 303 304 305 306 307 308 309 311 311 315 318 325 330 333 326 320 318 326 331 334 331 334 338 338 338 339 339 333 326 319 319 325 334 336 337 336 334 333 334 333 332 331
300 300 301 301 302 303 305 306 308 310 312 312 317 322 327 328 327 319 318 322 328 330 333 335 337 337 338 338 339 331 316 315 318 326 332 334 335 334 334 333 333 332 331
296 297 297 298 299 300 301 302 304 306 309 312 313 316 317 322 321 320 317 320 322 328 330 334 334 336 338 337 333 323 315 312 313 319 324 329 332 333 333 333 333 332 331
292 293 294 295 296 297 299 301 302 303 306 308 311 313 315 318 325 321 322 322 322 326 329 333 334 335 335 335 334 321 316 311 312 315 318 322 325 328 330 331 332 332 331
291 292 292 293 294 295 297 298 300 302 305 307 309 311 313 317 321 325 320 319 319 322 323 326 331 332 334 333 328 315 330 310 309 311 313 315 318 320 322 326 328 329 329
290 291 291 291 292 293 294 295 296 298 299 300 304 306 312 315 321 321 326 322 317 314 319 323 323 331 332 333 327 331 331 318 309 308 308 311 313 316 317 318 321 323 325
289 289 290 290 291 291 292 292 293 295 296 298 300 302 307 314 319 320 324 325 320 317 316 324 325 327 330 329 325 328 328 317 307 306 307 307 309 311 312 314 315 317 320
287 287 288 289 289 290 290 290 291 294 294 296 299 301 304 311 316 319 321 321 320 319 315 321 327 328 328 329 327 325 325 325 323 305 305 304 305 306 307 308 309 312 315
286 286 287 288 288 289 289 289 290 291 291 292 294 295 298 298 306 319 320 319 319 319 317 315 321 325 326 326 327 324 324 323 323 310 305 304 304 303 303 304 304 305 308
285 285 285 286 287 287 288 288 288 288 288 289 289 291 292 292 291 293 296 316 320 319 318 317 318 324 323 324 322 322 320 320 321 313 303 302 303 303 302 302 302 303 304
284 283 284 285 286 286 287 287 287 287 287 287 287 288 288 288 288 289 293 297 304 317 318 319 316 314 316 319 319 317 316 318 319 316 309 307 304 302 302 302 302 302 304
283 283 283 283 285 285 285 286 286 286 285 285 287 286 287 287 288 288 291 291 292 297 316 316 314 315 315 314 314 318 316 316 314 310 312 309 310 310 308 301 305 302 302
282 282 281 281 283 284 285 284 285 284 285 284 284 284 285 286 286 286 288 289 288 287 287 313 315 314 315 316 317 315 314 307 306 305 311 307 303 309 307 309 302 300 300
280 280 280 280 281 283 283 283 283 284 283 283 282 283 283 284 284 284 285 286 287 286 286 286 291 304 305 316 321 315 314 313 311 304 310 306 295 296 294 294 294 295 297
278 278 279 279 280 282 282 282 281 283 283 282 281 283 283 283 284 283 282 282 283 283 283 285 285 285 286 287 290 314 317 307 293 290 301 297 288 289 288 290 292 294 295
278 278 278 278 279 279 281 281 280 281 281 281 281 281 282 282 283 284 282 280 280 281 283 285 285 286 286 287 287 296 305 301 288 290 287 289 285 286 286 286 287 290 292
277 278 277 277 277 278 279 280 279 279 277 279 279 280 280 280 281 281 280 279 279 279 280 281 282 283 284 284 285 285 286 293 291 287 287 288 285 286 286 285 287 286 290

GFSMA_sfc_thetae_126.txt.gz
Theta_e
350 349 347 348 347 349 347 348 350 348 349 349 349 348 348 348 347 344 344 335 335 340 344 346 347 348 348 345 343 343 342 342 342 341 339 338 337 337 336 336 336 335 335
347 347 348 346 347 348 350 348 344 346 347 345 347 348 347 347 348 348 346 345 332 335 340 344 346 347 349 347 343 343 343 341 341 341 339 337 336 335 336 335 335 334 334
334 343 345 345 346 348 347 346 345 347 344 343 343 345 347 348 347 346 347 346 342 329 332 338 341 344 345 348 344 342 341 340 340 340 339 337 336 335 334 334 334 333 334
326 329 332 335 335 337 336 345 343 344 342 340 340 340 343 346 347 347 347 348 345 344 332 331 334 338 341 344 345 344 342 340 339 339 338 337 336 335 334 334 334 333 333
322 323 328 331 332 331 332 331 337 342 341 339 339 340 341 341 346 344 345 346 347 346 344 332 329 331 335 339 343 345 344 342 341 340 338 337 337 335 334 334 334 333 333
319 321 323 324 326 327 331 332 331 333 335 336 336 335 338 340 343 340 340 342 344 346 345 344 341 339 327 333 337 342 345 345 343 342 341 338 337 335 334 334 334 333 333
316 318 319 320 322 322 324 327 328 331 335 338 331 331 334 339 333 332 331 329 334 341 344 345 344 344 340 328 333 339 343 345 344 343 341 339 337 335 334 334 334 333 333
312 312 311 311 311 313 317 320 323 323 326 334 330 327 321 324 331 328 328 328 331 336 338 342 343 342 343 342 339 333 338 342 344 342 340 338 336 335 334 334 334 333 333
307 305 306 307 308 309 310 310 312 315 319 325 332 330 322 319 325 328 326 330 333 336 338 339 340 342 343 343 338 334 326 330 337 341 339 337 336 336 335 334 333 333 333
303 302 302 304 305 305 307 307 310 311 312 313 322 329 334 330 322 320 330 332 335 335 339 338 339 340 340 344 337 328 320 320 326 335 338 337 337 336 335 334 334 333 333
302 301 300 301 301 302 303 303 304 305 308 311 312 317 322 329 330 326 320 326 332 334 336 339 340 340 340 342 342 335 318 316 318 327 333 336 337 336 335 334 334 333 333
298 298 298 299 300 300 300 301 302 303 305 307 309 313 313 315 321 323 323 324 324 330 334 336 338 339 340 341 336 323 317 314 314 320 326 330 333 334 334 334 334 334 333
293 295 295 296 297 297 298 299 300 302 304 304 307 309 312 314 316 319 320 322 322 324 328 334 335 338 338 340 340 323 317 311 312 315 320 324 327 329 331 332 333 333 333
292 293 294 294 295 296 297 297 298 300 303 303 303 303 308 311 314 317 318 320 319 321 324 326 332 335 338 338 334 316 334 310 309 311 314 317 320 323 324 326 328 329 330
291 292 292 292 293 294 294 295 295 297 298 300 302 302 303 306 309 314 315 322 320 316 318 325 324 332 333 335 332 338 337 319 309 308 309 312 315 318 319 320 322 324 326
290 290 290 291 291 292 292 293 293 295 295 296 298 300 301 303 304 309 315 319 324 321 319 323 324 325 332 330 330 336 335 319 308 306 306 308 311 314 315 316 317 318 321
289 289 289 289 289 290 291 291 291 291 291 292 293 294 297 296 297 299 308 317 322 319 318 323 325 327 330 331 331 334 332 333 331 306 305 305 305 307 309 311 312 313 315
289 288 289 289 289 289 289 289 288 289 288 288 288 290 289 291 291 293 294 298 304 320 319 315 320 324 325 329 331 330 331 329 331 313 305 305 304 304 305 306 307 307 308
288 287 288 287 288 288 288 289 288 288 288 288 288 288 287 288 288 289 291 295 298 301 306 316 316 320 321 325 327 329 328 330 326 316 304 302 303 303 304 304 305 305 306
287 287 287 287 288 287 286 287 288 288 288 287 288 287 287 286 287 287 290 291 292 294 297 301 316 321 319 322 327 326 320 322 321 322 313 309 305 303 303 303 303 303 303
287 287 287 288 288 286 285 285 288 288 287 286 287 287 287 287 287 286 287 288 287 287 290 292 298 307 318 316 317 319 317 320 318 321 318 316 314 313 310 303 307 303 302
285 285 285 286 286 284 282 283 285 286 285 284 284 285 286 286 285 286 285 285 285 284 284 286 288 288 291 291 308 316 316 315 311 312 316 314 314 314 315 315 306 302 300
284 282 283 284 283 284 282 282 283 284 284 283 283 283 283 284 285 286 286 285 284 284 284 284 284 284 285 286 286 289 309 316 315 319 315 310 303 311 308 300 299 300 299
281 281 280 281 282 282 280 281 282 284 284 283 282 282 282 282 283 284 284 284 285 283 283 284 283 284 284 285 286 287 289 295 308 301 312 304 289 294 293 295 294 296 297
281 280 280 279 279 280 280 279 281 284 283 282 282 282 281 281 280 281 281 281 282 283 285 285 285 284 284 285 285 285 285 288 294 291 290 295 287 286 287 287 289 292 293
280 281 280 279 278 278 278 278 279 280 280 281 281 281 278 278 278 279 279 279 278 280 282 283 284 284 284 283 284 283 283 283 286 288 288 290 287 287 287 286 286 287 291